Wetterdaten: Samstag, 24.09.2016
Datum Zeit Temp. Aussen Temp. o. S. +5cm Feuchte Auss BlattFeu 1 Luftdruck Regen Sonnenschein Regendauer Solar Windben Empfang
24.09.2016 00:00 11,6 C 10,6 C 8,9 C 89 % 7 lf 1025,2 hPa 0,0 l/m 0 min 0 min 0 W/m 0,0 km/h (0 Bft) 95,65 %
24.09.2016 00:02 11,6 C 10,6 C 8,9 C 89 % 8 lf 1025,2 hPa 0,0 l/m 0 min 0 min 0 W/m 0,0 km/h (0 Bft) 94,44 %
24.09.2016 00:05 11,6 C 10,6 C 8,9 C 89 % 9 lf 1025,1 hPa 0,0 l/m 0 min 0 min 0 W/m 0,0 km/h (0 Bft) 95,77 %
24.09.2016 00:06 11,6 C 10,6 C 8,9 C 89 % 9 lf 1025,1 hPa 0,0 l/m 0 min 0 min 5 W/m 0,0 km/h (0 Bft) 95,65 %
24.09.2016 00:08 11,5 C 10,0 C 8,9 C 89 % 10 lf 1025,1 hPa 0,0 l/m 0 min 0 min 0 W/m 0,0 km/h (0 Bft) 95,74 %
24.09.2016 00:10 11,5 C 10,0 C 8,9 C 89 % 10 lf 1025,1 hPa 0,0 l/m 0 min 0 min 0 W/m 0,0 km/h (0 Bft) 95,74 %
24.09.2016 00:12 11,4 C 10,0 C 8,9 C 89 % 10 lf 1025,1 hPa 0,0 l/m 0 min 0 min 0 W/m 0,0 km/h (0 Bft) 97,83 %
24.09.2016 00:14 11,4 C 10,0 C 8,9 C 89 % 11 lf 1025,1 hPa 0,0 l/m 0 min 0 min 5 W/m 0,0 km/h (0 Bft) 93,62 %
24.09.2016 00:16 11,4 C 10,0 C 8,9 C 89 % 11 lf 1025,2 hPa 0,0 l/m 0 min 0 min 5 W/m 0,0 km/h (0 Bft) 97,87 %
24.09.2016 00:18 11,4 C 10,0 C 8,9 C 89 % 12 lf 1025,1 hPa 0,0 l/m 0 min 0 min 0 W/m 0,0 km/h (0 Bft) 97,87 %
24.09.2016 00:20 11,3 C 10,0 C 8,9 C 89 % 12 lf 1025,1 hPa 0,0 l/m 0 min 0 min 0 W/m 0,0 km/h (0 Bft) 93,62 %
24.09.2016 00:22 11,3 C 10,0 C 8,9 C 89 % 12 lf 1025,1 hPa 0,0 l/m 0 min 0 min 0 W/m 0,0 km/h (0 Bft) 93,62 %
24.09.2016 00:24 11,3 C 10,0 C 8,9 C 89 % 13 lf 1025,1 hPa 0,0 l/m 0 min 0 min 0 W/m 0,0 km/h (0 Bft) 97,83 %
24.09.2016 00:26 11,3 C 10,0 C 8,9 C 89 % 13 lf 1025,0 hPa 0,0 l/m 0 min 0 min 0 W/m 0,0 km/h (0 Bft) 100,00 %
24.09.2016 00:28 11,3 C 10,0 C 8,9 C 89 % 13 lf 1025,0 hPa 0,0 l/m 0 min 0 min 0 W/m 0,0 km/h (0 Bft) 100,00 %
24.09.2016 00:30 11,2 C 10,0 C 8,9 C 89 % 13 lf 1025,0 hPa 0,0 l/m 0 min 0 min 0 W/m 0,0 km/h (0 Bft) 97,87 %
24.09.2016 00:32 11,2 C 10,0 C 8,9 C 89 % 14 lf 1025,0 hPa 0,0 l/m 0 min 0 min 0 W/m 0,0 km/h (0 Bft) 98,11 %
24.09.2016 00:34 11,2 C 9,4 C 8,9 C 89 % 14 lf 1025,1 hPa 0,0 l/m 0 min 0 min 0 W/m 0,0 km/h (0 Bft) 100,00 %
24.09.2016 00:36 11,2 C 9,4 C 8,9 C 89 % 14 lf 1025,1 hPa 0,0 l/m 0 min 0 min 0 W/m 0,0 km/h (0 Bft) 100,00 %
24.09.2016 00:38 11,1 C 9,4 C 8,9 C 89 % 14 lf 1024,9 hPa 0,0 l/m 0 min 0 min 0 W/m 0,0 km/h (0 Bft) 97,87 %
24.09.2016 00:40 11,1 C 9,4 C 8,9 C 89 % 15 lf 1025,0 hPa 0,0 l/m 0 min 0 min 5 W/m 0,0 km/h (0 Bft) 100,00 %
24.09.2016 00:42 11,1 C 10,0 C 8,9 C 89 % 15 lf 1025,0 hPa 0,0 l/m 0 min 0 min 5 W/m 0,0 km/h (0 Bft) 100,00 %
24.09.2016 00:44 11,1 C 10,0 C 8,3 C 89 % 15 lf 1025,0 hPa 0,0 l/m 0 min 0 min 5 W/m 0,0 km/h (0 Bft) 95,65 %
24.09.2016 00:46 11,1 C 10,0 C 8,3 C 90 % 15 lf 1024,9 hPa 0,0 l/m 0 min 0 min 5 W/m 0,0 km/h (0 Bft) 97,87 %
24.09.2016 00:48 11,0 C 10,0 C 8,3 C 90 % 15 lf 1025,0 hPa 0,0 l/m 0 min 0 min 0 W/m 0,0 km/h (0 Bft) 97,87 %
24.09.2016 00:50 11,0 C 10,0 C 8,3 C 90 % 15 lf 1024,9 hPa 0,0 l/m 0 min 0 min 0 W/m 0,0 km/h (0 Bft) 95,74 %
24.09.2016 00:52 11,0 C 10,0 C 8,3 C 90 % 15 lf 1024,9 hPa 0,0 l/m 0 min 0 min 0 W/m 0,0 km/h (0 Bft) 97,87 %
24.09.2016 00:54 10,9 C 10,0 C 8,3 C 90 % 15 lf 1024,9 hPa 0,0 l/m 0 min 0 min 0 W/m 0,0 km/h (0 Bft) 97,83 %
24.09.2016 00:56 10,9 C 10,0 C 8,3 C 90 % 15 lf 1024,9 hPa 0,0 l/m 0 min 0 min 0 W/m 2,1 km/h (1 Bft) 97,87 %
24.09.2016 00:58 10,9 C 10,0 C 8,9 C 90 % 15 lf 1024,9 hPa 0,0 l/m 0 min 0 min 5 W/m 0,0 km/h (0 Bft) 95,74 %
24.09.2016 01:00 10,9 C 10,0 C 8,9 C 90 % 15 lf 1024,9 hPa 0,0 l/m 0 min 0 min 5 W/m 0,0 km/h (0 Bft) 97,87 %
24.09.2016 01:02 10,9 C 10,0 C 8,3 C 90 % 15 lf 1024,9 hPa 0,0 l/m 0 min 0 min 5 W/m 0,0 km/h (0 Bft) 97,92 %
24.09.2016 01:04 10,9 C 10,0 C 8,3 C 90 % 15 lf 1024,9 hPa 0,0 l/m 0 min 0 min 5 W/m 0,0 km/h (0 Bft) 95,74 %
24.09.2016 01:06 10,9 C 10,0 C 8,3 C 90 % 15 lf 1024,8 hPa 0,0 l/m 0 min 0 min 5 W/m 2,1 km/h (1 Bft) 97,37 %
24.09.2016 01:08 10,9 C 10,0 C 8,3 C 91 % 15 lf 1024,8 hPa 0,0 l/m 0 min 0 min 5 W/m 2,1 km/h (1 Bft) 93,48 %
24.09.2016 01:10 10,9 C 10,0 C 8,3 C 91 % 15 lf 1024,8 hPa 0,0 l/m 0 min 0 min 5 W/m 2,1 km/h (1 Bft) 95,74 %
24.09.2016 01:12 10,8 C 10,0 C 8,3 C 91 % 15 lf 1024,7 hPa 0,0 l/m 0 min 0 min 5 W/m 0,0 km/h (0 Bft) 97,87 %
24.09.2016 01:14 10,8 C 10,0 C 8,3 C 91 % 15 lf 1024,8 hPa 0,0 l/m 0 min 0 min 5 W/m 0,0 km/h (0 Bft) 97,87 %
24.09.2016 01:16 10,8 C 10,0 C 8,3 C 91 % 15 lf 1024,8 hPa 0,0 l/m 0 min 0 min 5 W/m 2,1 km/h (1 Bft) 95,74 %
24.09.2016 01:18 10,8 C 10,0 C 8,3 C 91 % 15 lf 1024,7 hPa 0,0 l/m 0 min 0 min 5 W/m 4,2 km/h (1 Bft) 95,74 %
24.09.2016 01:20 10,8 C 10,0 C 8,3 C 91 % 15 lf 1024,7 hPa 0,0 l/m 0 min 0 min 5 W/m 4,2 km/h (1 Bft) 93,48 %
24.09.2016 01:22 10,8 C 10,0 C 8,3 C 91 % 15 lf 1024,7 hPa 0,0 l/m 0 min 0 min 5 W/m 2,1 km/h (1 Bft) 95,74 %
24.09.2016 01:24 10,8 C 10,0 C 8,3 C 91 % 15 lf 1024,7 hPa 0,0 l/m 0 min 0 min 5 W/m 2,1 km/h (1 Bft) 91,49 %
24.09.2016 01:26 10,8 C 10,0 C 8,3 C 91 % 15 lf 1024,7 hPa 0,0 l/m 0 min 0 min 5 W/m 2,1 km/h (1 Bft) 93,62 %
24.09.2016 01:28 10,8 C 10,0 C 8,3 C 91 % 15 lf 1024,6 hPa 0,0 l/m 0 min 0 min 5 W/m 2,1 km/h (1 Bft) 91,49 %
24.09.2016 01:30 10,7 C 10,0 C 8,3 C 92 % 15 lf 1024,6 hPa 0,0 l/m 0 min 0 min 5 W/m 2,1 km/h (1 Bft) 95,74 %
24.09.2016 01:32 10,7 C 10,0 C 8,3 C 92 % 15 lf 1024,6 hPa 0,0 l/m 0 min 0 min 5 W/m 2,1 km/h (1 Bft) 95,65 %
24.09.2016 01:34 10,7 C 10,0 C 8,3 C 92 % 15 lf 1024,7 hPa 0,0 l/m 0 min 0 min 5 W/m 2,1 km/h (1 Bft) 93,62 %
24.09.2016 01:36 10,7 C 10,0 C 8,3 C 92 % 15 lf 1024,6 hPa 0,0 l/m 0 min 0 min 5 W/m 0,0 km/h (0 Bft) 91,67 %
24.09.2016 01:38 10,7 C 10,0 C 8,3 C 92 % 15 lf 1024,6 hPa 0,0 l/m 0 min 0 min 5 W/m 0,0 km/h (0 Bft) 97,87 %
24.09.2016 01:40 10,7 C 9,4 C 8,3 C 92 % 15 lf 1024,6 hPa 0,0 l/m 0 min 0 min 5 W/m 0,0 km/h (0 Bft) 95,74 %
24.09.2016 01:42 10,7 C 9,4 C 8,3 C 92 % 15 lf 1024,6 hPa 0,0 l/m 0 min 0 min 5 W/m 0,0 km/h (0 Bft) 100,00 %
24.09.2016 01:44 10,6 C 9,4 C 8,3 C 92 % 15 lf 1024,6 hPa 0,0 l/m 0 min 0 min 5 W/m 0,0 km/h (0 Bft) 97,87 %
24.09.2016 01:46 10,6 C 9,4 C 8,3 C 92 % 15 lf 1024,7 hPa 0,0 l/m 0 min 0 min 5 W/m 0,0 km/h (0 Bft) 91,30 %
24.09.2016 01:48 10,6 C 9,4 C 8,3 C 92 % 15 lf 1024,7 hPa 0,0 l/m 0 min 0 min 5 W/m 0,0 km/h (0 Bft) 97,87 %
24.09.2016 01:50 10,6 C 9,4 C 8,3 C 92 % 15 lf 1024,7 hPa 0,0 l/m 0 min 0 min 5 W/m 0,0 km/h (0 Bft) 100,00 %
24.09.2016 01:52 10,6 C 9,4 C 8,3 C 92 % 15 lf 1024,7 hPa 0,0 l/m 0 min 0 min 5 W/m 0,0 km/h (0 Bft) 100,00 %
24.09.2016 01:54 10,5 C 9,4 C 8,3 C 92 % 15 lf 1024,7 hPa 0,0 l/m 0 min 0 min 5 W/m 0,0 km/h (0 Bft) 100,00 %
24.09.2016 01:56 10,5 C 9,4 C 8,3 C 92 % 15 lf 1024,7 hPa 0,0 l/m 0 min 0 min 5 W/m 0,0 km/h (0 Bft) 100,00 %
24.09.2016 01:58 10,5 C 9,4 C 8,3 C 92 % 15 lf 1024,7 hPa 0,0 l/m 0 min 0 min 5 W/m 0,0 km/h (0 Bft) 97,83 %
24.09.2016 02:00 10,5 C 9,4 C 8,3 C 92 % 15 lf 1024,8 hPa 0,0 l/m 0 min 0 min 5 W/m 0,0 km/h (0 Bft) 95,74 %
24.09.2016 02:02 10,4 C 8,9 C 8,3 C 92 % 15 lf 1024,8 hPa 0,0 l/m 0 min 0 min 5 W/m 0,0 km/h (0 Bft) 97,87 %
24.09.2016 02:04 10,4 C 9,4 C 7,8 C 92 % 15 lf 1024,7 hPa 0,0 l/m 0 min 0 min 5 W/m 0,0 km/h (0 Bft) 97,87 %
24.09.2016 02:06 10,4 C 9,4 C 7,8 C 92 % 15 lf 1024,7 hPa 0,0 l/m 0 min 0 min 5 W/m 0,0 km/h (0 Bft) 91,49 %
24.09.2016 02:08 10,4 C 9,4 C 7,8 C 92 % 15 lf 1024,7 hPa 0,0 l/m 0 min 0 min 0 W/m 0,0 km/h (0 Bft) 97,83 %
24.09.2016 02:10 10,4 C 9,4 C 7,8 C 92 % 15 lf 1024,7 hPa 0,0 l/m 0 min 0 min 0 W/m 0,0 km/h (0 Bft) 97,87 %
24.09.2016 02:12 10,4 C 9,4 C 7,8 C 92 % 15 lf 1024,7 hPa 0,0 l/m 0 min 0 min 0 W/m 2,1 km/h (1 Bft) 97,87 %
24.09.2016 02:14 10,3 C 9,4 C 7,8 C 92 % 15 lf 1024,7 hPa 0,0 l/m 0 min 0 min 0 W/m 2,1 km/h (1 Bft) 95,74 %
24.09.2016 02:16 10,3 C 9,4 C 8,3 C 92 % 15 lf 1024,7 hPa 0,0 l/m 0 min 0 min 0 W/m 4,2 km/h (1 Bft) 97,87 %
24.09.2016 02:18 10,3 C 9,4 C 8,3 C 92 % 15 lf 1024,7 hPa 0,0 l/m 0 min 0 min 0 W/m 2,1 km/h (1 Bft) 95,74 %
24.09.2016 02:20 10,3 C 9,4 C 7,8 C 92 % 15 lf 1024,7 hPa 0,0 l/m 0 min 0 min 0 W/m 4,2 km/h (1 Bft) 97,83 %
24.09.2016 02:22 10,3 C 9,4 C 8,3 C 92 % 15 lf 1024,7 hPa 0,0 l/m 0 min 0 min 0 W/m 2,1 km/h (1 Bft) 97,87 %
24.09.2016 02:24 10,3 C 10,0 C 7,8 C 92 % 15 lf 1024,7 hPa 0,0 l/m 0 min 0 min 0 W/m 2,1 km/h (1 Bft) 95,74 %
24.09.2016 02:26 10,3 C 10,0 C 8,3 C 92 % 15 lf 1024,7 hPa 0,0 l/m 0 min 0 min 0 W/m 0,0 km/h (0 Bft) 97,87 %
24.09.2016 02:28 10,3 C 10,0 C 7,8 C 92 % 15 lf 1024,8 hPa 0,0 l/m 0 min 0 min 0 W/m 2,1 km/h (1 Bft) 93,62 %
24.09.2016 02:30 10,3 C 10,0 C 8,3 C 92 % 15 lf 1024,7 hPa 0,0 l/m 0 min 0 min 0 W/m 2,1 km/h (1 Bft) 97,87 %
24.09.2016 02:32 10,2 C 10,0 C 7,8 C 92 % 15 lf 1024,7 hPa 0,0 l/m 0 min 0 min 0 W/m 2,1 km/h (1 Bft) 95,74 %
24.09.2016 02:34 10,2 C 10,0 C 7,8 C 92 % 15 lf 1024,7 hPa 0,0 l/m 0 min 0 min 0 W/m 4,2 km/h (1 Bft) 95,65 %
24.09.2016 02:36 10,2 C 10,0 C 7,8 C 92 % 15 lf 1024,6 hPa 0,0 l/m 0 min 0 min 0 W/m 2,1 km/h (1 Bft) 97,87 %
24.09.2016 02:38 10,2 C 10,0 C 8,3 C 93 % 15 lf 1024,5 hPa 0,0 l/m 0 min 0 min 0 W/m 4,2 km/h (1 Bft) 95,74 %
24.09.2016 02:40 10,2 C 9,4 C 8,3 C 93 % 15 lf 1024,6 hPa 0,0 l/m 0 min 0 min 0 W/m 4,2 km/h (1 Bft) 95,74 %
24.09.2016 02:42 10,2 C 9,4 C 8,3 C 93 % 15 lf 1024,6 hPa 0,0 l/m 0 min 0 min 0 W/m 2,1 km/h (1 Bft) 95,74 %
24.09.2016 02:44 10,2 C 10,0 C 8,3 C 93 % 15 lf 1024,6 hPa 0,0 l/m 0 min 0 min 0 W/m 0,0 km/h (0 Bft) 97,83 %
24.09.2016 02:46 10,2 C 9,4 C 8,3 C 93 % 15 lf 1024,6 hPa 0,0 l/m 0 min 0 min 0 W/m 0,0 km/h (0 Bft) 95,74 %
24.09.2016 02:48 10,2 C 10,0 C 8,3 C 93 % 15 lf 1024,5 hPa 0,0 l/m 0 min 0 min 0 W/m 0,0 km/h (0 Bft) 95,74 %
24.09.2016 02:50 10,2 C 10,0 C 8,3 C 93 % 15 lf 1024,6 hPa 0,0 l/m 0 min 0 min 5 W/m 0,0 km/h (0 Bft) 97,87 %
24.09.2016 02:52 10,2 C 10,0 C 8,3 C 93 % 15 lf 1024,6 hPa 0,0 l/m 0 min 0 min 5 W/m 0,0 km/h (0 Bft) 93,62 %
24.09.2016 02:54 10,2 C 10,0 C 8,3 C 93 % 15 lf 1024,5 hPa 0,0 l/m 0 min 0 min 5 W/m 0,0 km/h (0 Bft) 100,00 %
24.09.2016 02:56 10,2 C 10,0 C 8,9 C 93 % 15 lf 1024,6 hPa 0,0 l/m 0 min 0 min 5 W/m 0,0 km/h (0 Bft) 100,00 %
24.09.2016 02:58 10,2 C 10,0 C 8,9 C 93 % 15 lf 1024,6 hPa 0,0 l/m 0 min 0 min 5 W/m 0,0 km/h (0 Bft) 97,87 %
24.09.2016 03:00 10,2 C 10,6 C 8,9 C 94 % 15 lf 1024,6 hPa 0,0 l/m 0 min 0 min 5 W/m 4,2 km/h (1 Bft) 100,00 %
24.09.2016 03:02 10,3 C 10,6 C 8,9 C 94 % 15 lf 1024,6 hPa 0,0 l/m 0 min 0 min 5 W/m 4,2 km/h (1 Bft) 100,00 %
24.09.2016 03:04 10,3 C 10,6 C 8,9 C 94 % 15 lf 1024,6 hPa 0,0 l/m 0 min 0 min 5 W/m 4,2 km/h (1 Bft) 95,65 %
24.09.2016 03:06 10,3 C 10,6 C 8,9 C 94 % 15 lf 1024,6 hPa 0,0 l/m 0 min 0 min 5 W/m 2,1 km/h (1 Bft) 94,74 %
24.09.2016 03:08 10,3 C 10,6 C 8,9 C 94 % 15 lf 1024,6 hPa 0,0 l/m 0 min 0 min 5 W/m 2,1 km/h (1 Bft) 100,00 %
24.09.2016 03:10 10,3 C 10,6 C 8,9 C 94 % 15 lf 1024,6 hPa 0,0 l/m 0 min 0 min 5 W/m 2,1 km/h (1 Bft) 97,87 %
24.09.2016 03:12 10,3 C 10,0 C 8,9 C 94 % 15 lf 1024,5 hPa 0,0 l/m 0 min 0 min 5 W/m 2,1 km/h (1 Bft) 95,83 %
24.09.2016 03:14 10,3 C 10,6 C 8,9 C 94 % 15 lf 1024,5 hPa 0,0 l/m 0 min 0 min 5 W/m 2,1 km/h (1 Bft) 97,87 %
24.09.2016 03:16 10,3 C 10,6 C 8,9 C 94 % 15 lf 1024,5 hPa 0,0 l/m 0 min 0 min 5 W/m 4,2 km/h (1 Bft) 93,48 %
24.09.2016 03:18 10,3 C 10,6 C 8,9 C 94 % 15 lf 1024,6 hPa 0,0 l/m 0 min 0 min 5 W/m 4,2 km/h (1 Bft) 97,87 %
24.09.2016 03:20 10,3 C 10,6 C 8,9 C 94 % 15 lf 1024,5 hPa 0,0 l/m 0 min 0 min 5 W/m 2,1 km/h (1 Bft) 97,87 %
24.09.2016 03:22 10,4 C 10,6 C 8,9 C 94 % 15 lf 1024,5 hPa 0,0 l/m 0 min 0 min 5 W/m 2,1 km/h (1 Bft) 95,74 %
24.09.2016 03:24 10,4 C 10,6 C 8,9 C 94 % 15 lf 1024,6 hPa 0,0 l/m 0 min 0 min 5 W/m 0,0 km/h (0 Bft) 95,74 %
24.09.2016 03:26 10,4 C 10,0 C 8,9 C 94 % 15 lf 1024,5 hPa 0,0 l/m 0 min 0 min 5 W/m 0,0 km/h (0 Bft) 91,30 %
24.09.2016 03:28 10,4 C 10,0 C 8,9 C 94 % 15 lf 1024,6 hPa 0,0 l/m 0 min 0 min 5 W/m 0,0 km/h (0 Bft) 87,23 %
24.09.2016 03:30 10,4 C 10,0 C 8,9 C 95 % 15 lf 1024,5 hPa 0,0 l/m 0 min 0 min 5 W/m 0,0 km/h (0 Bft) 93,62 %
24.09.2016 03:32 10,4 C 10,0 C 8,9 C 95 % 15 lf 1024,5 hPa 0,0 l/m 0 min 0 min 5 W/m 0,0 km/h (0 Bft) 89,58 %
24.09.2016 03:34 10,4 C 10,0 C 8,9 C 95 % 15 lf 1024,4 hPa 0,0 l/m 0 min 0 min 5 W/m 2,1 km/h (1 Bft) 93,62 %
24.09.2016 03:36 10,4 C 10,6 C 8,9 C 95 % 15 lf 1024,4 hPa 0,0 l/m 0 min 0 min 5 W/m 4,2 km/h (1 Bft) 92,11 %
24.09.2016 03:38 10,4 C 10,6 C 8,9 C 95 % 15 lf 1024,4 hPa 0,0 l/m 0 min 0 min 5 W/m 4,2 km/h (1 Bft) 93,62 %
24.09.2016 03:40 10,4 C 10,6 C 8,9 C 95 % 15 lf 1024,4 hPa 0,0 l/m 0 min 0 min 5 W/m 6,3 km/h (2 Bft) 93,48 %
24.09.2016 03:42 10,4 C 10,6 C 8,9 C 95 % 15 lf 1024,4 hPa 0,0 l/m 0 min 0 min 5 W/m 8,4 km/h (2 Bft) 91,49 %
24.09.2016 03:44 10,4 C 10,6 C 8,9 C 95 % 15 lf 1024,3 hPa 0,0 l/m 0 min 0 min 5 W/m 6,3 km/h (2 Bft) 93,62 %
24.09.2016 03:46 10,4 C 10,6 C 8,9 C 95 % 15 lf 1024,4 hPa 0,0 l/m 0 min 0 min 5 W/m 4,2 km/h (1 Bft) 93,62 %
24.09.2016 03:48 10,4 C 10,6 C 8,9 C 95 % 15 lf 1024,4 hPa 0,0 l/m 0 min 0 min 5 W/m 4,2 km/h (1 Bft) 93,62 %
24.09.2016 03:50 10,4 C 10,6 C 8,9 C 95 % 15 lf 1024,3 hPa 0,0 l/m 0 min 0 min 5 W/m 4,2 km/h (1 Bft) 95,74 %
24.09.2016 03:52 10,4 C 10,6 C 8,9 C 95 % 15 lf 1024,3 hPa 0,0 l/m 0 min 0 min 5 W/m 4,2 km/h (1 Bft) 93,62 %
24.09.2016 03:54 10,4 C 10,6 C 8,9 C 95 % 15 lf 1024,3 hPa 0,0 l/m 0 min 0 min 5 W/m 4,2 km/h (1 Bft) 93,48 %
24.09.2016 03:56 10,4 C 10,6 C 8,9 C 95 % 15 lf 1024,3 hPa 0,0 l/m 0 min 0 min 5 W/m 4,2 km/h (1 Bft) 93,62 %
24.09.2016 03:58 10,4 C 10,6 C 8,9 C 95 % 15 lf 1024,3 hPa 0,0 l/m 0 min 0 min 5 W/m 6,3 km/h (2 Bft) 95,74 %
24.09.2016 04:00 10,4 C 10,6 C 8,9 C 95 % 15 lf 1024,2 hPa 0,0 l/m 0 min 0 min 5 W/m 6,3 km/h (2 Bft) 95,74 %
24.09.2016 04:02 10,4 C 10,6 C 8,9 C 95 % 15 lf 1024,2 hPa 0,0 l/m 0 min 0 min 5 W/m 2,1 km/h (1 Bft) 100,00 %
24.09.2016 04:04 10,5 C 10,6 C 8,9 C 95 % 15 lf 1024,2 hPa 0,0 l/m 0 min 0 min 5 W/m 4,2 km/h (1 Bft) 93,62 %
24.09.2016 04:06 10,5 C 10,6 C 8,9 C 95 % 15 lf 1024,1 hPa 0,0 l/m 0 min 0 min 5 W/m 6,3 km/h (2 Bft) 100,00 %
24.09.2016 04:08 10,5 C 10,6 C 8,9 C 95 % 15 lf 1024,2 hPa 0,0 l/m 0 min 0 min 5 W/m 6,3 km/h (2 Bft) 91,49 %
24.09.2016 04:10 10,5 C 10,6 C 8,9 C 95 % 15 lf 1024,2 hPa 0,0 l/m 0 min 0 min 5 W/m 4,2 km/h (1 Bft) 93,62 %
24.09.2016 04:12 10,5 C 10,6 C 8,9 C 95 % 15 lf 1024,1 hPa 0,0 l/m 0 min 0 min 5 W/m 4,2 km/h (1 Bft) 95,74 %
24.09.2016 04:14 10,5 C 10,6 C 8,9 C 95 % 15 lf 1024,1 hPa 0,0 l/m 0 min 0 min 5 W/m 6,3 km/h (2 Bft) 95,65 %
24.09.2016 04:16 10,5 C 10,6 C 8,9 C 95 % 15 lf 1024,1 hPa 0,0 l/m 0 min 0 min 5 W/m 10,5 km/h (2 Bft) 95,74 %
24.09.2016 04:18 10,5 C 10,6 C 8,9 C 95 % 15 lf 1024,1 hPa 0,0 l/m 0 min 0 min 5 W/m 8,4 km/h (2 Bft) 95,74 %
24.09.2016 04:20 10,5 C 10,6 C 8,9 C 95 % 15 lf 1024,1 hPa 0,0 l/m 0 min 0 min 5 W/m 8,4 km/h (2 Bft) 97,87 %
24.09.2016 04:22 10,6 C 10,6 C 8,9 C 95 % 15 lf 1024,1 hPa 0,0 l/m 0 min 0 min 5 W/m 6,3 km/h (2 Bft) 97,87 %
24.09.2016 04:24 10,6 C 11,1 C 8,9 C 95 % 15 lf 1024,0 hPa 0,0 l/m 0 min 0 min 5 W/m 6,3 km/h (2 Bft) 95,65 %
24.09.2016 04:26 10,6 C 11,1 C 8,9 C 95 % 15 lf 1024,1 hPa 0,0 l/m 0 min 0 min 5 W/m 6,3 km/h (2 Bft) 97,87 %
24.09.2016 04:28 10,6 C 11,1 C 8,9 C 96 % 15 lf 1024,0 hPa 0,0 l/m 0 min 0 min 5 W/m 8,4 km/h (2 Bft) 97,87 %
24.09.2016 04:30 10,6 C 11,1 C 8,9 C 96 % 15 lf 1024,1 hPa 0,0 l/m 0 min 0 min 5 W/m 6,3 km/h (2 Bft) 97,87 %
24.09.2016 04:32 10,6 C 11,1 C 8,9 C 96 % 15 lf 1024,1 hPa 0,0 l/m 0 min 0 min 5 W/m 6,3 km/h (2 Bft) 95,83 %
24.09.2016 04:34 10,6 C 11,1 C 8,9 C 96 % 15 lf 1024,1 hPa 0,0 l/m 0 min 0 min 5 W/m 4,2 km/h (1 Bft) 100,00 %
24.09.2016 04:36 10,6 C 11,1 C 8,9 C 96 % 15 lf 1024,1 hPa 0,0 l/m 0 min 0 min 5 W/m 6,3 km/h (2 Bft) 100,00 %
24.09.2016 04:38 10,6 C 11,1 C 8,9 C 96 % 15 lf 1024,1 hPa 0,0 l/m 0 min 0 min 5 W/m 6,3 km/h (2 Bft) 100,00 %
24.09.2016 04:40 10,7 C 11,1 C 8,9 C 96 % 15 lf 1024,1 hPa 0,0 l/m 0 min 0 min 5 W/m 4,2 km/h (1 Bft) 100,00 %
24.09.2016 04:42 10,7 C 10,6 C 8,9 C 96 % 15 lf 1024,0 hPa 0,0 l/m 0 min 0 min 5 W/m 6,3 km/h (2 Bft) 100,00 %
24.09.2016 04:44 10,7 C 10,6 C 8,9 C 96 % 15 lf 1024,0 hPa 0,0 l/m 0 min 0 min 5 W/m 4,2 km/h (1 Bft) 95,74 %
24.09.2016 04:46 10,7 C 10,6 C 8,9 C 96 % 15 lf 1024,0 hPa 0,0 l/m 0 min 0 min 5 W/m 4,2 km/h (1 Bft) 100,00 %
24.09.2016 04:48 10,7 C 11,1 C 8,9 C 96 % 15 lf 1024,0 hPa 0,0 l/m 0 min 0 min 5 W/m 6,3 km/h (2 Bft) 100,00 %
24.09.2016 04:50 10,7 C 10,6 C 8,9 C 96 % 15 lf 1024,0 hPa 0,0 l/m 0 min 0 min 5 W/m 4,2 km/h (1 Bft) 100,00 %
24.09.2016 04:52 10,7 C 11,1 C 8,9 C 96 % 15 lf 1024,0 hPa 0,0 l/m 0 min 0 min 5 W/m 4,2 km/h (1 Bft) 97,83 %
24.09.2016 04:54 10,7 C 11,1 C 8,9 C 96 % 15 lf 1023,9 hPa 0,0 l/m 0 min 0 min 5 W/m 6,3 km/h (2 Bft) 97,87 %
24.09.2016 04:56 10,7 C 11,1 C 8,9 C 96 % 15 lf 1024,0 hPa 0,0 l/m 0 min 0 min 5 W/m 6,3 km/h (2 Bft) 97,87 %
24.09.2016 04:58 10,7 C 10,6 C 8,9 C 96 % 15 lf 1024,0 hPa 0,0 l/m 0 min 0 min 5 W/m 6,3 km/h (2 Bft) 95,74 %
24.09.2016 05:00 10,7 C 10,6 C 8,9 C 96 % 15 lf 1024,0 hPa 0,0 l/m 0 min 0 min 5 W/m 6,3 km/h (2 Bft) 93,62 %
24.09.2016 05:02 10,7 C 10,6 C 8,9 C 96 % 15 lf 1024,0 hPa 0,0 l/m 0 min 0 min 5 W/m 6,3 km/h (2 Bft) 93,62 %
24.09.2016 05:04 10,7 C 10,6 C 8,9 C 96 % 15 lf 1024,0 hPa 0,0 l/m 0 min 0 min 5 W/m 6,3 km/h (2 Bft) 95,65 %
24.09.2016 05:06 10,7 C 10,6 C 8,9 C 96 % 15 lf 1024,0 hPa 0,0 l/m 0 min 0 min 5 W/m 4,2 km/h (1 Bft) 95,74 %
24.09.2016 05:08 10,7 C 10,6 C 8,9 C 96 % 15 lf 1024,1 hPa 0,0 l/m 0 min 0 min 5 W/m 4,2 km/h (1 Bft) 95,74 %
24.09.2016 05:10 10,7 C 10,6 C 8,9 C 96 % 15 lf 1024,0 hPa 0,0 l/m 0 min 0 min 5 W/m 4,2 km/h (1 Bft) 95,74 %
24.09.2016 05:12 10,7 C 10,6 C 8,3 C 96 % 15 lf 1024,1 hPa 0,0 l/m 0 min 0 min 5 W/m 4,2 km/h (1 Bft) 95,74 %
24.09.2016 05:14 10,7 C 10,6 C 8,9 C 96 % 15 lf 1024,0 hPa 0,0 l/m 0 min 0 min 5 W/m 6,3 km/h (2 Bft) 95,74 %
24.09.2016 05:16 10,7 C 10,6 C 8,3 C 96 % 15 lf 1024,0 hPa 0,0 l/m 0 min 0 min 5 W/m 6,3 km/h (2 Bft) 93,48 %
24.09.2016 05:18 10,7 C 10,6 C 8,9 C 96 % 15 lf 1024,0 hPa 0,0 l/m 0 min 0 min 5 W/m 6,3 km/h (2 Bft) 95,74 %
24.09.2016 05:20 10,7 C 10,6 C 8,9 C 96 % 15 lf 1024,0 hPa 0,0 l/m 0 min 0 min 5 W/m 8,4 km/h (2 Bft) 93,62 %
24.09.2016 05:22 10,7 C 10,6 C 8,9 C 96 % 15 lf 1024,0 hPa 0,0 l/m 0 min 0 min 5 W/m 4,2 km/h (1 Bft) 95,74 %
24.09.2016 05:24 10,7 C 10,6 C 8,9 C 96 % 15 lf 1024,0 hPa 0,0 l/m 0 min 0 min 5 W/m 4,2 km/h (1 Bft) 95,74 %
24.09.2016 05:26 10,6 C 10,6 C 8,3 C 96 % 15 lf 1024,0 hPa 0,0 l/m 0 min 0 min 5 W/m 6,3 km/h (2 Bft) 95,65 %
24.09.2016 05:28 10,6 C 10,6 C 8,3 C 96 % 15 lf 1024,0 hPa 0,0 l/m 0 min 0 min 5 W/m 6,3 km/h (2 Bft) 95,74 %
24.09.2016 05:30 10,6 C 10,6 C 8,3 C 96 % 15 lf 1024,0 hPa 0,0 l/m 0 min 0 min 5 W/m 6,3 km/h (2 Bft) 93,62 %
24.09.2016 05:32 10,6 C 10,6 C 8,3 C 96 % 15 lf 1024,0 hPa 0,0 l/m 0 min 0 min 5 W/m 6,3 km/h (2 Bft) 95,74 %
24.09.2016 05:34 10,6 C 10,6 C 8,3 C 96 % 15 lf 1024,0 hPa 0,0 l/m 0 min 0 min 5 W/m 4,2 km/h (1 Bft) 91,49 %
24.09.2016 05:36 10,6 C 10,6 C 8,3 C 96 % 15 lf 1024,0 hPa 0,0 l/m 0 min 0 min 5 W/m 6,3 km/h (2 Bft) 94,34 %
24.09.2016 05:38 10,6 C 10,6 C 8,9 C 96 % 15 lf 1024,0 hPa 0,0 l/m 0 min 0 min 5 W/m 4,2 km/h (1 Bft) 97,87 %
24.09.2016 05:40 10,6 C 10,6 C 8,9 C 96 % 15 lf 1024,0 hPa 0,0 l/m 0 min 0 min 5 W/m 6,3 km/h (2 Bft) 94,29 %
24.09.2016 05:42 10,6 C 10,6 C 8,9 C 96 % 15 lf 1024,0 hPa 0,0 l/m 0 min 0 min 5 W/m 6,3 km/h (2 Bft) 96,15 %
24.09.2016 05:44 10,6 C 10,6 C 8,9 C 96 % 15 lf 1024,0 hPa 0,0 l/m 0 min 0 min 5 W/m 4,2 km/h (1 Bft) 97,87 %
24.09.2016 05:46 10,5 C 10,6 C 8,9 C 96 % 15 lf 1024,0 hPa 0,0 l/m 0 min 0 min 5 W/m 6,3 km/h (2 Bft) 95,74 %
24.09.2016 05:48 10,5 C 10,6 C 8,9 C 96 % 15 lf 1023,9 hPa 0,0 l/m 0 min 0 min 5 W/m 10,5 km/h (2 Bft) 95,74 %
24.09.2016 05:50 10,5 C 10,6 C 8,9 C 96 % 15 lf 1023,9 hPa 0,0 l/m 0 min 0 min 5 W/m 6,3 km/h (2 Bft) 97,83 %
24.09.2016 05:52 10,5 C 10,6 C 8,9 C 96 % 15 lf 1023,9 hPa 0,0 l/m 0 min 0 min 5 W/m 10,5 km/h (2 Bft) 100,00 %
24.09.2016 05:54 10,5 C 10,6 C 8,9 C 96 % 15 lf 1023,9 hPa 0,0 l/m 0 min 0 min 5 W/m 4,2 km/h (1 Bft) 100,00 %
24.09.2016 05:56 10,5 C 10,6 C 8,3 C 96 % 15 lf 1023,9 hPa 0,0 l/m 0 min 0 min 5 W/m 8,4 km/h (2 Bft) 97,87 %
24.09.2016 05:58 10,5 C 10,6 C 8,3 C 96 % 15 lf 1023,8 hPa 0,0 l/m 0 min 0 min 5 W/m 4,2 km/h (1 Bft) 100,00 %
24.09.2016 06:00 10,5 C 10,6 C 8,3 C 96 % 15 lf 1023,9 hPa 0,0 l/m 0 min 0 min 5 W/m 6,3 km/h (2 Bft) 100,00 %
24.09.2016 06:02 10,5 C 10,6 C 8,3 C 96 % 15 lf 1023,8 hPa 0,0 l/m 0 min 0 min 5 W/m 8,4 km/h (2 Bft) 97,83 %
24.09.2016 06:04 10,4 C 10,6 C 8,9 C 96 % 15 lf 1023,8 hPa 0,0 l/m 0 min 0 min 5 W/m 6,3 km/h (2 Bft) 100,00 %
24.09.2016 06:06 10,4 C 10,6 C 8,3 C 96 % 15 lf 1023,9 hPa 0,0 l/m 0 min 0 min 5 W/m 6,3 km/h (2 Bft) 100,00 %
24.09.2016 06:08 10,4 C 10,6 C 8,3 C 96 % 15 lf 1023,8 hPa 0,0 l/m 0 min 0 min 5 W/m 6,3 km/h (2 Bft) 100,00 %
24.09.2016 06:10 10,4 C 10,6 C 8,3 C 96 % 15 lf 1023,9 hPa 0,0 l/m 0 min 0 min 5 W/m 6,3 km/h (2 Bft) 95,74 %
24.09.2016 06:12 10,4 C 10,6 C 8,9 C 96 % 15 lf 1023,8 hPa 0,0 l/m 0 min 0 min 5 W/m 8,4 km/h (2 Bft) 97,83 %
24.09.2016 06:14 10,4 C 10,6 C 8,9 C 96 % 15 lf 1023,8 hPa 0,0 l/m 0 min 0 min 5 W/m 10,5 km/h (2 Bft) 100,00 %
24.09.2016 06:16 10,4 C 10,6 C 8,9 C 96 % 15 lf 1023,8 hPa 0,0 l/m 0 min 0 min 5 W/m 6,3 km/h (2 Bft) 97,87 %
24.09.2016 06:18 10,4 C 10,0 C 8,9 C 96 % 15 lf 1023,8 hPa 0,0 l/m 0 min 0 min 5 W/m 8,4 km/h (2 Bft) 95,74 %
24.09.2016 06:20 10,4 C 10,0 C 8,3 C 96 % 15 lf 1023,8 hPa 0,0 l/m 0 min 0 min 5 W/m 8,4 km/h (2 Bft) 97,87 %
24.09.2016 06:22 10,4 C 10,0 C 8,3 C 96 % 15 lf 1023,7 hPa 0,0 l/m 0 min 0 min 5 W/m 6,3 km/h (2 Bft) 95,74 %
24.09.2016 06:24 10,4 C 10,0 C 8,3 C 96 % 15 lf 1023,8 hPa 0,0 l/m 0 min 0 min 5 W/m 6,3 km/h (2 Bft) 97,83 %
24.09.2016 06:26 10,4 C 10,0 C 8,3 C 96 % 15 lf 1023,8 hPa 0,0 l/m 0 min 0 min 5 W/m 6,3 km/h (2 Bft) 93,62 %
24.09.2016 06:28 10,4 C 10,0 C 8,3 C 96 % 15 lf 1023,8 hPa 0,0 l/m 0 min 0 min 5 W/m 6,3 km/h (2 Bft) 95,74 %
24.09.2016 06:30 10,3 C 10,0 C 8,3 C 96 % 15 lf 1023,8 hPa 0,0 l/m 0 min 0 min 5 W/m 6,3 km/h (2 Bft) 95,74 %
24.09.2016 06:32 10,3 C 10,0 C 8,3 C 96 % 15 lf 1023,8 hPa 0,0 l/m 0 min 0 min 5 W/m 6,3 km/h (2 Bft) 97,87 %
24.09.2016 06:34 10,3 C 10,0 C 8,3 C 96 % 15 lf 1023,8 hPa 0,0 l/m 0 min 0 min 5 W/m 6,3 km/h (2 Bft) 97,87 %
24.09.2016 06:36 10,3 C 10,0 C 8,3 C 96 % 15 lf 1023,8 hPa 0,0 l/m 0 min 0 min 5 W/m 6,3 km/h (2 Bft) 95,92 %
24.09.2016 06:38 10,3 C 10,0 C 8,3 C 96 % 15 lf 1023,9 hPa 0,0 l/m 0 min 0 min 5 W/m 6,3 km/h (2 Bft) 97,87 %
24.09.2016 06:40 10,3 C 10,0 C 8,3 C 96 % 15 lf 1023,8 hPa 0,0 l/m 0 min 0 min 5 W/m 6,3 km/h (2 Bft) 97,87 %
24.09.2016 06:42 10,3 C 10,0 C 8,3 C 96 % 15 lf 1023,8 hPa 0,0 l/m 0 min 0 min 5 W/m 6,3 km/h (2 Bft) 93,62 %
24.09.2016 06:44 10,2 C 10,0 C 8,3 C 96 % 15 lf 1023,8 hPa 0,0 l/m 0 min 0 min 5 W/m 6,3 km/h (2 Bft) 95,74 %
24.09.2016 06:46 10,2 C 10,0 C 8,3 C 96 % 15 lf 1023,8 hPa 0,0 l/m 0 min 0 min 5 W/m 6,3 km/h (2 Bft) 97,83 %
24.09.2016 06:48 10,2 C 10,0 C 8,3 C 96 % 15 lf 1023,8 hPa 0,0 l/m 0 min 0 min 5 W/m 6,3 km/h (2 Bft) 91,49 %
24.09.2016 06:50 10,2 C 10,0 C 8,3 C 96 % 15 lf 1023,8 hPa 0,0 l/m 0 min 0 min 5 W/m 8,4 km/h (2 Bft) 93,62 %
24.09.2016 06:52 10,2 C 10,0 C 8,3 C 96 % 15 lf 1023,8 hPa 0,0 l/m 0 min 0 min 5 W/m 8,4 km/h (2 Bft) 97,87 %
24.09.2016 06:54 10,2 C 10,0 C 8,3 C 96 % 15 lf 1023,8 hPa 0,0 l/m 0 min 0 min 5 W/m 8,4 km/h (2 Bft) 97,87 %
24.09.2016 06:56 10,2 C 10,0 C 8,3 C 96 % 15 lf 1023,7 hPa 0,0 l/m 0 min 0 min 5 W/m 6,3 km/h (2 Bft) 97,87 %
24.09.2016 06:58 10,2 C 10,0 C 8,3 C 96 % 15 lf 1023,7 hPa 0,0 l/m 0 min 0 min 5 W/m 6,3 km/h (2 Bft) 97,83 %
24.09.2016 07:00 10,2 C 10,0 C 8,3 C 96 % 15 lf 1023,8 hPa 0,0 l/m 0 min 0 min 0 W/m 6,3 km/h (2 Bft) 89,36 %
24.09.2016 07:02 10,2 C 10,0 C 8,3 C 96 % 15 lf 1023,8 hPa 0,0 l/m 0 min 0 min 5 W/m 4,2 km/h (1 Bft) 97,92 %
24.09.2016 07:04 10,2 C 10,0 C 8,3 C 96 % 15 lf 1023,8 hPa 0,0 l/m 0 min 0 min 1 W/m 4,2 km/h (1 Bft) 97,87 %
24.09.2016 07:06 10,2 C 10,0 C 8,3 C 96 % 15 lf 1023,8 hPa 0,0 l/m 0 min 0 min 3 W/m 6,3 km/h (2 Bft) 95,74 %
24.09.2016 07:08 10,2 C 10,0 C 8,3 C 96 % 15 lf 1023,8 hPa 0,0 l/m 0 min 0 min 5 W/m 6,3 km/h (2 Bft) 97,87 %
24.09.2016 07:10 10,1 C 10,0 C 8,3 C 96 % 15 lf 1023,8 hPa 0,0 l/m 0 min 0 min 0 W/m 6,3 km/h (2 Bft) 97,87 %
24.09.2016 07:12 10,1 C 10,0 C 8,3 C 96 % 15 lf 1023,7 hPa 0,0 l/m 0 min 0 min 12 W/m 6,3 km/h (2 Bft) 95,65 %
24.09.2016 07:14 10,1 C 10,0 C 8,3 C 96 % 15 lf 1023,7 hPa 0,0 l/m 0 min 0 min 12 W/m 8,4 km/h (2 Bft) 95,74 %
24.09.2016 07:16 10,1 C 10,0 C 8,3 C 96 % 15 lf 1023,7 hPa 0,0 l/m 0 min 0 min 11 W/m 8,4 km/h (2 Bft) 95,74 %
24.09.2016 07:18 10,1 C 10,0 C 8,3 C 96 % 15 lf 1023,7 hPa 0,0 l/m 0 min 0 min 9 W/m 6,3 km/h (2 Bft) 95,74 %
24.09.2016 07:20 10,1 C 10,0 C 8,3 C 96 % 15 lf 1023,8 hPa 0,0 l/m 0 min 0 min 10 W/m 6,3 km/h (2 Bft) 97,87 %
24.09.2016 07:22 10,1 C 10,0 C 8,3 C 96 % 15 lf 1023,7 hPa 0,0 l/m 0 min 0 min 11 W/m 8,4 km/h (2 Bft) 91,49 %
24.09.2016 07:24 10,1 C 10,0 C 8,3 C 96 % 15 lf 1023,8 hPa 0,0 l/m 0 min 0 min 11 W/m 6,3 km/h (2 Bft) 95,65 %
24.09.2016 07:26 10,1 C 10,0 C 8,3 C 96 % 15 lf 1023,8 hPa 0,0 l/m 0 min 0 min 12 W/m 8,4 km/h (2 Bft) 93,62 %
24.09.2016 07:28 10,1 C 10,0 C 8,3 C 96 % 15 lf 1023,7 hPa 0,0 l/m 0 min 0 min 13 W/m 8,4 km/h (2 Bft) 93,62 %
24.09.2016 07:30 10,1 C 10,0 C 8,3 C 96 % 15 lf 1023,7 hPa 0,0 l/m 0 min 0 min 14 W/m 8,4 km/h (2 Bft) 95,74 %
24.09.2016 07:32 10,1 C 10,0 C 8,3 C 96 % 15 lf 1023,7 hPa 0,0 l/m 0 min 0 min 18 W/m 10,5 km/h (2 Bft) 97,87 %
24.09.2016 07:34 10,1 C 10,0 C 8,3 C 96 % 15 lf 1023,7 hPa 0,0 l/m 0 min 0 min 22 W/m 8,4 km/h (2 Bft) 97,87 %
24.09.2016 07:36 10,1 C 10,0 C 8,3 C 96 % 15 lf 1023,7 hPa 0,0 l/m 2 min 0 min 22 W/m 10,5 km/h (2 Bft) 97,62 %
24.09.2016 07:38 10,1 C 10,0 C 8,9 C 96 % 15 lf 1023,7 hPa 0,0 l/m 2 min 0 min 24 W/m 8,4 km/h (2 Bft) 97,87 %
24.09.2016 07:40 10,1 C 10,0 C 8,9 C 96 % 15 lf 1023,7 hPa 0,0 l/m 2 min 0 min 19 W/m 10,5 km/h (2 Bft) 97,87 %
24.09.2016 07:42 10,1 C 10,0 C 8,9 C 96 % 15 lf 1023,7 hPa 0,0 l/m 2 min 0 min 26 W/m 8,4 km/h (2 Bft) 97,92 %
24.09.2016 07:44 10,1 C 10,0 C 8,9 C 96 % 15 lf 1023,8 hPa 0,0 l/m 2 min 0 min 28 W/m 10,5 km/h (2 Bft) 97,87 %
24.09.2016 07:46 10,1 C 10,0 C 8,9 C 96 % 15 lf 1023,9 hPa 0,0 l/m 2 min 0 min 29 W/m 8,4 km/h (2 Bft) 95,65 %
24.09.2016 07:48 10,1 C 10,6 C 8,9 C 96 % 15 lf 1023,9 hPa 0,0 l/m 2 min 0 min 33 W/m 8,4 km/h (2 Bft) 95,74 %
24.09.2016 07:50 10,1 C 10,6 C 8,9 C 96 % 15 lf 1023,9 hPa 0,0 l/m 2 min 0 min 33 W/m 6,3 km/h (2 Bft) 96,00 %
24.09.2016 07:52 10,1 C 10,6 C 8,9 C 96 % 15 lf 1023,9 hPa 0,0 l/m 2 min 0 min 35 W/m 6,3 km/h (2 Bft) 93,62 %
24.09.2016 07:54 10,1 C 10,6 C 8,9 C 96 % 15 lf 1023,9 hPa 0,0 l/m 2 min 0 min 37 W/m 8,4 km/h (2 Bft) 95,74 %
24.09.2016 07:56 10,1 C 10,6 C 8,9 C 96 % 15 lf 1023,9 hPa 0,0 l/m 2 min 0 min 39 W/m 8,4 km/h (2 Bft) 95,74 %
24.09.2016 07:58 10,1 C 10,6 C 8,9 C 96 % 15 lf 1023,9 hPa 0,0 l/m 2 min 0 min 40 W/m 6,3 km/h (2 Bft) 93,48 %
24.09.2016 08:00 10,1 C 10,6 C 8,9 C 97 % 15 lf 1023,9 hPa 0,0 l/m 2 min 0 min 46 W/m 8,4 km/h (2 Bft) 93,62 %
24.09.2016 08:02 10,1 C 10,6 C 8,9 C 97 % 15 lf 1023,9 hPa 0,0 l/m 2 min 0 min 50 W/m 8,4 km/h (2 Bft) 95,74 %
24.09.2016 08:04 10,1 C 10,6 C 8,9 C 97 % 15 lf 1023,9 hPa 0,0 l/m 2 min 0 min 52 W/m 10,5 km/h (2 Bft) 95,74 %
24.09.2016 08:06 10,2 C 10,6 C 8,9 C 97 % 15 lf 1023,9 hPa 0,0 l/m 2 min 0 min 54 W/m 12,6 km/h (3 Bft) 92,45 %
24.09.2016 08:08 10,2 C 10,6 C 9,4 C 97 % 15 lf 1023,9 hPa 0,0 l/m 2 min 0 min 57 W/m 12,6 km/h (3 Bft) 95,74 %
24.09.2016 08:10 10,2 C 11,1 C 9,4 C 97 % 15 lf 1023,9 hPa 0,0 l/m 2 min 0 min 60 W/m 12,6 km/h (3 Bft) 97,14 %
24.09.2016 08:12 10,3 C 11,1 C 9,4 C 97 % 15 lf 1023,9 hPa 0,0 l/m 2 min 0 min 58 W/m 14,6 km/h (3 Bft) 94,23 %
24.09.2016 08:14 10,3 C 11,1 C 9,4 C 97 % 15 lf 1023,9 hPa 0,0 l/m 2 min 0 min 67 W/m 8,4 km/h (2 Bft) 95,74 %
24.09.2016 08:16 10,3 C 11,1 C 9,4 C 97 % 15 lf 1023,9 hPa 0,0 l/m 2 min 0 min 73 W/m 14,6 km/h (3 Bft) 95,74 %
24.09.2016 08:18 10,4 C 11,1 C 9,4 C 97 % 15 lf 1023,9 hPa 0,0 l/m 2 min 0 min 78 W/m 12,6 km/h (3 Bft) 95,74 %
24.09.2016 08:20 10,4 C 11,1 C 9,4 C 97 % 15 lf 1023,9 hPa 0,0 l/m 2 min 0 min 76 W/m 12,6 km/h (3 Bft) 95,74 %
24.09.2016 08:22 10,5 C 11,1 C 9,4 C 97 % 15 lf 1023,9 hPa 0,0 l/m 2 min 0 min 76 W/m 12,6 km/h (3 Bft) 95,65 %
24.09.2016 08:24 10,6 C 11,1 C 9,4 C 97 % 15 lf 1023,9 hPa 0,0 l/m 2 min 0 min 90 W/m 12,6 km/h (3 Bft) 95,74 %
24.09.2016 08:26 10,6 C 11,7 C 10,0 C 97 % 15 lf 1023,9 hPa 0,0 l/m 2 min 0 min 92 W/m 10,5 km/h (2 Bft) 93,62 %
24.09.2016 08:28 10,6 C 11,7 C 10,0 C 97 % 15 lf 1023,9 hPa 0,0 l/m 2 min 0 min 97 W/m 14,6 km/h (3 Bft) 95,74 %
24.09.2016 08:30 10,7 C 11,7 C 10,0 C 97 % 15 lf 1023,9 hPa 0,0 l/m 2 min 0 min 100 W/m 12,6 km/h (3 Bft) 97,87 %
24.09.2016 08:32 10,7 C 12,2 C 10,0 C 97 % 15 lf 1023,9 hPa 0,0 l/m 2 min 0 min 108 W/m 14,6 km/h (3 Bft) 97,87 %
24.09.2016 08:34 10,7 C 12,8 C 10,0 C 97 % 15 lf 1024,0 hPa 0,0 l/m 2 min 0 min 115 W/m 10,5 km/h (2 Bft) 97,83 %
24.09.2016 08:36 10,8 C 13,3 C 10,0 C 97 % 15 lf 1023,9 hPa 0,0 l/m 2 min 0 min 129 W/m 10,5 km/h (2 Bft) 93,02 %
24.09.2016 08:38 10,8 C 13,9 C 10,0 C 97 % 15 lf 1024,0 hPa 0,0 l/m 2 min 0 min 136 W/m 12,6 km/h (3 Bft) 97,87 %
24.09.2016 08:40 10,9 C 13,9 C 10,6 C 97 % 15 lf 1024,0 hPa 0,0 l/m 2 min 0 min 145 W/m 12,6 km/h (3 Bft) 93,62 %
24.09.2016 08:42 11,0 C 13,9 C 10,6 C 97 % 15 lf 1023,9 hPa 0,0 l/m 2 min 0 min 155 W/m 16,7 km/h (3 Bft) 97,87 %
24.09.2016 08:44 11,1 C 14,4 C 10,6 C 97 % 15 lf 1023,9 hPa 0,0 l/m 2 min 0 min 162 W/m 8,4 km/h (2 Bft) 100,00 %
24.09.2016 08:46 11,2 C 14,4 C 10,6 C 97 % 15 lf 1023,9 hPa 0,0 l/m 2 min 0 min 166 W/m 12,6 km/h (3 Bft) 93,62 %
24.09.2016 08:48 11,2 C 14,4 C 10,6 C 97 % 15 lf 1024,0 hPa 0,0 l/m 2 min 0 min 174 W/m 12,6 km/h (3 Bft) 95,74 %
24.09.2016 08:50 11,3 C 15,0 C 10,6 C 97 % 15 lf 1024,0 hPa 0,0 l/m 2 min 0 min 183 W/m 10,5 km/h (2 Bft) 100,00 %
24.09.2016 08:52 11,4 C 15,6 C 11,1 C 97 % 15 lf 1024,0 hPa 0,0 l/m 2 min 0 min 185 W/m 10,5 km/h (2 Bft) 100,00 %
24.09.2016 08:54 11,5 C 15,0 C 11,1 C 97 % 15 lf 1024,0 hPa 0,0 l/m 2 min 0 min 183 W/m 10,5 km/h (2 Bft) 97,87 %
24.09.2016 08:56 11,6 C 15,0 C 11,1 C 98 % 15 lf 1024,0 hPa 0,0 l/m 2 min 0 min 200 W/m 8,4 km/h (2 Bft) 91,30 %
24.09.2016 08:58 11,6 C 15,0 C 11,1 C 98 % 15 lf 1023,9 hPa 0,0 l/m 2 min 0 min 546 W/m 14,6 km/h (3 Bft) 93,62 %
24.09.2016 09:00 11,7 C 15,6 C 11,7 C 97 % 12 lf 1023,9 hPa 0,0 l/m 2 min 0 min 533 W/m 10,5 km/h (2 Bft) 93,62 %
24.09.2016 09:02 11,8 C 16,1 C 11,7 C 97 % 8 lf 1023,9 hPa 0,0 l/m 2 min 0 min 363 W/m 12,6 km/h (3 Bft) 95,83 %
24.09.2016 09:04 11,9 C 16,1 C 11,7 C 97 % 2 lf 1024,0 hPa 0,0 l/m 2 min 0 min 230 W/m 10,5 km/h (2 Bft) 89,36 %
24.09.2016 09:06 11,9 C 16,7 C 11,7 C 98 % 1 lf 1023,9 hPa 0,0 l/m 2 min 0 min 238 W/m 8,4 km/h (2 Bft) 96,00 %
24.09.2016 09:08 12,1 C 16,7 C 11,7 C 98 % 1 lf 1023,9 hPa 0,0 l/m 2 min 0 min 247 W/m 10,5 km/h (2 Bft) 91,30 %
24.09.2016 09:10 12,1 C 16,7 C 12,2 C 98 % 1 lf 1023,9 hPa 0,0 l/m 2 min 0 min 248 W/m 10,5 km/h (2 Bft) 95,74 %
24.09.2016 09:12 12,2 C 15,6 C 12,2 C 98 % 1 lf 1023,9 hPa 0,0 l/m 2 min 0 min 213 W/m 12,6 km/h (3 Bft) 93,62 %
24.09.2016 09:14 12,3 C 16,7 C 12,2 C 98 % 1 lf 1024,0 hPa 0,0 l/m 2 min 0 min 245 W/m 12,6 km/h (3 Bft) 95,74 %
24.09.2016 09:16 12,4 C 16,1 C 12,2 C 98 % 1 lf 1024,0 hPa 0,0 l/m 2 min 0 min 236 W/m 10,5 km/h (2 Bft) 89,36 %
24.09.2016 09:18 12,4 C 15,0 C 12,2 C 98 % 1 lf 1024,0 hPa 0,0 l/m 2 min 0 min 196 W/m 10,5 km/h (2 Bft) 97,87 %
24.09.2016 09:20 12,4 C 15,6 C 12,2 C 98 % 1 lf 1024,0 hPa 0,0 l/m 2 min 0 min 231 W/m 10,5 km/h (2 Bft) 95,65 %
24.09.2016 09:22 12,5 C 15,6 C 12,2 C 97 % 1 lf 1024,1 hPa 0,0 l/m 2 min 0 min 263 W/m 12,6 km/h (3 Bft) 93,62 %
24.09.2016 09:24 12,6 C 16,7 C 12,2 C 97 % 1 lf 1024,0 hPa 0,0 l/m 2 min 0 min 276 W/m 10,5 km/h (2 Bft) 95,74 %
24.09.2016 09:26 12,7 C 17,8 C 12,8 C 98 % 1 lf 1024,0 hPa 0,0 l/m 2 min 0 min 286 W/m 12,6 km/h (3 Bft) 95,74 %
24.09.2016 09:28 12,7 C 17,8 C 12,8 C 98 % 0 lf 1024,0 hPa 0,0 l/m 2 min 0 min 284 W/m 14,6 km/h (3 Bft) 95,74 %
24.09.2016 09:30 12,8 C 17,2 C 12,8 C 97 % 0 lf 1024,0 hPa 0,0 l/m 2 min 0 min 285 W/m 12,6 km/h (3 Bft) 97,87 %
24.09.2016 09:32 12,9 C 17,8 C 13,3 C 97 % 0 lf 1024,0 hPa 0,0 l/m 2 min 0 min 296 W/m 10,5 km/h (2 Bft) 97,83 %
24.09.2016 09:34 13,0 C 17,2 C 13,3 C 97 % 0 lf 1023,9 hPa 0,0 l/m 2 min 0 min 300 W/m 10,5 km/h (2 Bft) 95,74 %
24.09.2016 09:36 13,1 C 17,8 C 13,9 C 97 % 0 lf 1023,9 hPa 0,0 l/m 2 min 0 min 308 W/m 12,6 km/h (3 Bft) 97,62 %
24.09.2016 09:38 13,2 C 17,8 C 13,9 C 97 % 0 lf 1023,9 hPa 0,0 l/m 2 min 0 min 290 W/m 12,6 km/h (3 Bft) 98,08 %
24.09.2016 09:40 13,3 C 18,3 C 13,9 C 97 % 0 lf 1023,9 hPa 0,0 l/m 2 min 0 min 298 W/m 12,6 km/h (3 Bft) 100,00 %
24.09.2016 09:42 13,4 C 18,9 C 13,9 C 97 % 0 lf 1023,9 hPa 0,0 l/m 2 min 0 min 317 W/m 12,6 km/h (3 Bft) 95,74 %
24.09.2016 09:44 13,5 C 18,3 C 14,4 C 97 % 0 lf 1024,0 hPa 0,0 l/m 2 min 0 min 330 W/m 16,7 km/h (3 Bft) 97,83 %
24.09.2016 09:46 13,6 C 17,8 C 14,4 C 97 % 0 lf 1024,0 hPa 0,0 l/m 2 min 0 min 317 W/m 14,6 km/h (3 Bft) 97,87 %
24.09.2016 09:48 13,7 C 18,3 C 14,4 C 97 % 0 lf 1023,9 hPa 0,0 l/m 2 min 0 min 282 W/m 10,5 km/h (2 Bft) 97,87 %
24.09.2016 09:50 13,8 C 18,3 C 15,0 C 97 % 0 lf 1023,9 hPa 0,0 l/m 2 min 0 min 316 W/m 14,6 km/h (3 Bft) 97,87 %
24.09.2016 09:52 13,9 C 18,9 C 15,6 C 96 % 0 lf 1023,9 hPa 0,0 l/m 2 min 0 min 330 W/m 14,6 km/h (3 Bft) 100,00 %
24.09.2016 09:54 14,1 C 18,9 C 15,6 C 96 % 0 lf 1024,0 hPa 0,0 l/m 2 min 0 min 292 W/m 12,6 km/h (3 Bft) 100,00 %
24.09.2016 09:56 14,2 C 20,0 C 16,1 C 96 % 0 lf 1024,0 hPa 0,0 l/m 2 min 0 min 332 W/m 10,5 km/h (2 Bft) 97,83 %
24.09.2016 09:58 14,2 C 20,0 C 17,2 C 96 % 0 lf 1024,1 hPa 0,0 l/m 2 min 0 min 354 W/m 10,5 km/h (2 Bft) 97,87 %
24.09.2016 10:00 14,3 C 19,4 C 17,8 C 95 % 0 lf 1024,0 hPa 0,0 l/m 2 min 0 min 352 W/m 10,5 km/h (2 Bft) 100,00 %
24.09.2016 10:02 14,4 C 20,0 C 17,8 C 95 % 0 lf 1024,1 hPa 0,0 l/m 2 min 0 min 344 W/m 8,4 km/h (2 Bft) 97,87 %
24.09.2016 10:04 14,6 C 19,4 C 18,3 C 95 % 0 lf 1024,0 hPa 0,0 l/m 2 min 0 min 314 W/m 12,6 km/h (3 Bft) 100,00 %
24.09.2016 10:06 14,7 C 19,4 C 18,3 C 94 % 0 lf 1024,1 hPa 0,0 l/m 2 min 0 min 342 W/m 10,5 km/h (2 Bft) 100,00 %
24.09.2016 10:08 14,8 C 21,1 C 18,3 C 94 % 0 lf 1024,1 hPa 0,0 l/m 2 min 0 min 365 W/m 8,4 km/h (2 Bft) 100,00 %
24.09.2016 10:10 14,9 C 22,8 C 18,3 C 94 % 0 lf 1024,1 hPa 0,0 l/m 2 min 0 min 374 W/m 10,5 km/h (2 Bft) 97,87 %
24.09.2016 10:12 15,0 C 21,7 C 18,9 C 93 % 0 lf 1024,1 hPa 0,0 l/m 2 min 0 min 376 W/m 10,5 km/h (2 Bft) 100,00 %
24.09.2016 10:14 15,1 C 20,6 C 18,9 C 93 % 0 lf 1024,0 hPa 0,0 l/m 2 min 0 min 381 W/m 12,6 km/h (3 Bft) 100,00 %
24.09.2016 10:16 15,3 C 21,1 C 18,9 C 92 % 0 lf 1024,1 hPa 0,0 l/m 2 min 0 min 390 W/m 10,5 km/h (2 Bft) 97,87 %
24.09.2016 10:18 15,4 C 22,2 C 18,9 C 92 % 0 lf 1024,1 hPa 0,0 l/m 2 min 0 min 405 W/m 12,6 km/h (3 Bft) 100,00 %
24.09.2016 10:20 15,5 C 22,2 C 18,9 C 91 % 0 lf 1024,1 hPa 0,0 l/m 2 min 0 min 419 W/m 10,5 km/h (2 Bft) 97,87 %
24.09.2016 10:22 15,7 C 22,2 C 18,9 C 91 % 0 lf 1024,1 hPa 0,0 l/m 2 min 0 min 440 W/m 10,5 km/h (2 Bft) 100,00 %
24.09.2016 10:24 15,8 C 22,8 C 18,3 C 90 % 0 lf 1024,2 hPa 0,0 l/m 2 min 0 min 430 W/m 12,6 km/h (3 Bft) 97,87 %
24.09.2016 10:26 15,9 C 20,6 C 18,3 C 90 % 0 lf 1024,1 hPa 0,0 l/m 2 min 0 min 355 W/m 14,6 km/h (3 Bft) 100,00 %
24.09.2016 10:28 16,0 C 19,4 C 17,8 C 89 % 0 lf 1024,1 hPa 0,0 l/m 2 min 0 min 282 W/m 12,6 km/h (3 Bft) 100,00 %
24.09.2016 10:30 16,1 C 19,4 C 17,8 C 88 % 0 lf 1024,1 hPa 0,0 l/m 2 min 0 min 272 W/m 14,6 km/h (3 Bft) 97,83 %
24.09.2016 10:32 16,2 C 20,0 C 18,3 C 88 % 0 lf 1024,1 hPa 0,0 l/m 2 min 0 min 440 W/m 14,6 km/h (3 Bft) 97,92 %
24.09.2016 10:34 16,3 C 18,9 C 18,3 C 87 % 0 lf 1024,2 hPa 0,0 l/m 2 min 0 min 317 W/m 12,6 km/h (3 Bft) 97,87 %
24.09.2016 10:36 16,4 C 20,6 C 18,9 C 87 % 0 lf 1024,2 hPa 0,0 l/m 2 min 0 min 378 W/m 10,5 km/h (2 Bft) 100,00 %
24.09.2016 10:38 16,4 C 20,0 C 18,9 C 87 % 0 lf 1024,2 hPa 0,0 l/m 2 min 0 min 343 W/m 8,4 km/h (2 Bft) 97,87 %
24.09.2016 10:40 16,5 C 19,4 C 18,9 C 86 % 0 lf 1024,1 hPa 0,0 l/m 2 min 0 min 227 W/m 10,5 km/h (2 Bft) 97,87 %
24.09.2016 10:42 16,6 C 21,1 C 18,9 C 86 % 0 lf 1024,2 hPa 0,0 l/m 2 min 0 min 241 W/m 10,5 km/h (2 Bft) 100,00 %
24.09.2016 10:44 16,7 C 22,8 C 20,0 C 86 % 0 lf 1024,1 hPa 0,0 l/m 2 min 0 min 479 W/m 10,5 km/h (2 Bft) 93,62 %
24.09.2016 10:46 16,7 C 22,8 C 20,6 C 86 % 0 lf 1024,1 hPa 0,0 l/m 2 min 0 min 420 W/m 14,6 km/h (3 Bft) 97,87 %
24.09.2016 10:48 16,8 C 20,6 C 20,0 C 86 % 0 lf 1024,1 hPa 0,0 l/m 2 min 0 min 292 W/m 10,5 km/h (2 Bft) 97,87 %
24.09.2016 10:50 16,9 C 21,1 C 19,4 C 85 % 0 lf 1024,1 hPa 0,0 l/m 0 min 0 min 220 W/m 14,6 km/h (3 Bft) 97,87 %
24.09.2016 10:52 16,9 C 21,1 C 19,4 C 85 % 0 lf 1024,1 hPa 0,0 l/m 0 min 0 min 220 W/m 14,6 km/h (3 Bft) 95,74 %
24.09.2016 10:54 17,1 C 21,7 C 19,4 C 85 % 0 lf 1024,1 hPa 0,0 l/m 0 min 0 min 220 W/m 10,5 km/h (2 Bft) 93,48 %
24.09.2016 10:56 17,1 C 22,8 C 20,6 C 85 % 0 lf 1024,1 hPa 0,0 l/m 2 min 0 min 405 W/m 8,4 km/h (2 Bft) 93,62 %
24.09.2016 10:58 17,2 C 22,2 C 21,1 C 84 % 0 lf 1024,1 hPa 0,0 l/m 2 min 0 min 472 W/m 12,6 km/h (3 Bft) 93,62 %
24.09.2016 11:00 17,3 C 22,8 C 21,7 C 84 % 0 lf 1024,1 hPa 0,0 l/m 2 min 0 min 476 W/m 12,6 km/h (3 Bft) 95,74 %
24.09.2016 11:02 17,4 C 22,2 C 21,1 C 84 % 0 lf 1024,0 hPa 0,0 l/m 2 min 0 min 478 W/m 10,5 km/h (2 Bft) 91,49 %
24.09.2016 11:04 17,5 C 22,2 C 21,1 C 83 % 0 lf 1024,1 hPa 0,0 l/m 2 min 0 min 330 W/m 12,6 km/h (3 Bft) 93,62 %
24.09.2016 11:06 17,6 C 22,2 C 21,7 C 83 % 0 lf 1024,1 hPa 0,0 l/m 2 min 0 min 330 W/m 10,5 km/h (2 Bft) 95,24 %
24.09.2016 11:08 17,7 C 22,8 C 22,2 C 83 % 0 lf 1024,1 hPa 0,0 l/m 2 min 0 min 378 W/m 8,4 km/h (2 Bft) 93,62 %
24.09.2016 11:10 17,8 C 23,3 C 22,2 C 82 % 0 lf 1024,0 hPa 0,0 l/m 2 min 0 min 505 W/m 14,6 km/h (3 Bft) 93,62 %
24.09.2016 11:12 17,9 C 23,9 C 22,8 C 82 % 0 lf 1024,0 hPa 0,0 l/m 2 min 0 min 486 W/m 10,5 km/h (2 Bft) 91,49 %
24.09.2016 11:14 18,0 C 24,4 C 22,8 C 82 % 0 lf 1024,0 hPa 0,0 l/m 2 min 0 min 493 W/m 12,6 km/h (3 Bft) 93,62 %
24.09.2016 11:16 18,1 C 23,9 C 23,3 C 82 % 0 lf 1024,0 hPa 0,0 l/m 2 min 0 min 485 W/m 12,6 km/h (3 Bft) 93,48 %
24.09.2016 11:18 18,2 C 25,0 C 23,3 C 82 % 0 lf 1024,0 hPa 0,0 l/m 2 min 0 min 488 W/m 14,6 km/h (3 Bft) 93,62 %
24.09.2016 11:20 18,3 C 24,4 C 23,3 C 81 % 0 lf 1024,0 hPa 0,0 l/m 2 min 0 min 495 W/m 14,6 km/h (3 Bft) 93,62 %
24.09.2016 11:22 18,4 C 23,9 C 23,3 C 81 % 0 lf 1024,0 hPa 0,0 l/m 2 min 0 min 497 W/m 6,3 km/h (2 Bft) 91,49 %
24.09.2016 11:24 18,6 C 25,0 C 23,9 C 80 % 0 lf 1023,9 hPa 0,0 l/m 2 min 0 min 883 W/m 14,6 km/h (3 Bft) 93,62 %
24.09.2016 11:26 18,7 C 24,4 C 23,3 C 80 % 0 lf 1023,9 hPa 0,0 l/m 2 min 0 min 908 W/m 18,8 km/h (3 Bft) 91,49 %
24.09.2016 11:28 18,8 C 24,4 C 23,3 C 79 % 0 lf 1023,9 hPa 0,0 l/m 2 min 0 min 947 W/m 14,6 km/h (3 Bft) 93,48 %
24.09.2016 11:30 18,9 C 24,4 C 23,3 C 79 % 0 lf 1023,9 hPa 0,0 l/m 2 min 0 min 961 W/m 10,5 km/h (2 Bft) 95,74 %
24.09.2016 11:32 19,0 C 24,4 C 23,9 C 78 % 0 lf 1023,9 hPa 0,0 l/m 2 min 0 min 973 W/m 14,6 km/h (3 Bft) 95,83 %
24.09.2016 11:34 19,1 C 23,3 C 23,9 C 78 % 0 lf 1023,9 hPa 0,0 l/m 2 min 0 min 946 W/m 14,6 km/h (3 Bft) 93,62 %
24.09.2016 11:36 19,2 C 23,9 C 23,9 C 78 % 0 lf 1023,9 hPa 0,0 l/m 2 min 0 min 633 W/m 12,6 km/h (3 Bft) 92,00 %
24.09.2016 11:38 19,3 C 25,0 C 23,9 C 78 % 0 lf 1023,9 hPa 0,0 l/m 2 min 0 min 501 W/m 12,6 km/h (3 Bft) 93,62 %
24.09.2016 11:40 19,4 C 25,0 C 24,4 C 78 % 0 lf 1024,0 hPa 0,0 l/m 2 min 0 min 508 W/m 12,6 km/h (3 Bft) 95,65 %
24.09.2016 11:42 19,5 C 23,9 C 24,4 C 77 % 0 lf 1023,9 hPa 0,0 l/m 2 min 0 min 511 W/m 12,6 km/h (3 Bft) 97,87 %
24.09.2016 11:44 19,6 C 24,4 C 24,4 C 77 % 0 lf 1023,9 hPa 0,0 l/m 2 min 0 min 509 W/m 12,6 km/h (3 Bft) 95,74 %
24.09.2016 11:46 19,7 C 25,0 C 25,0 C 77 % 0 lf 1023,8 hPa 0,0 l/m 2 min 0 min 537 W/m 12,6 km/h (3 Bft) 95,74 %
24.09.2016 11:48 19,8 C 25,6 C 25,6 C 76 % 0 lf 1023,9 hPa 0,0 l/m 2 min 0 min 534 W/m 12,6 km/h (3 Bft) 100,00 %
24.09.2016 11:50 19,9 C 25,6 C 25,0 C 76 % 0 lf 1023,9 hPa 0,0 l/m 2 min 0 min 537 W/m 12,6 km/h (3 Bft) 93,62 %
24.09.2016 11:52 20,0 C 25,6 C 25,0 C 75 % 0 lf 1023,9 hPa 0,0 l/m 2 min 0 min 531 W/m 14,6 km/h (3 Bft) 97,83 %
24.09.2016 11:54 20,1 C 25,0 C 25,0 C 75 % 0 lf 1023,9 hPa 0,0 l/m 2 min 0 min 532 W/m 12,6 km/h (3 Bft) 97,87 %
24.09.2016 11:56 20,2 C 26,7 C 24,4 C 75 % 0 lf 1023,9 hPa 0,0 l/m 2 min 0 min 526 W/m 12,6 km/h (3 Bft) 97,87 %
24.09.2016 11:58 20,3 C 27,8 C 24,4 C 75 % 0 lf 1023,9 hPa 0,0 l/m 2 min 0 min 552 W/m 14,6 km/h (3 Bft) 100,00 %
24.09.2016 12:00 20,3 C 26,1 C 24,4 C 74 % 0 lf 1023,8 hPa 0,0 l/m 2 min 0 min 535 W/m 8,4 km/h (2 Bft) 95,74 %
24.09.2016 12:02 20,4 C 25,6 C 24,4 C 74 % 0 lf 1023,8 hPa 0,0 l/m 2 min 0 min 538 W/m 10,5 km/h (2 Bft) 97,87 %
24.09.2016 12:06 20,6 C 26,1 C 23,9 C 73 % 0 lf 1023,9 hPa 0,0 l/m 2 min 0 min 543 W/m 10,5 km/h (2 Bft) 96,77 %
24.09.2016 12:08 20,7 C 28,3 C 23,3 C 74 % 0 lf 1023,8 hPa 0,0 l/m 2 min 0 min 568 W/m 6,3 km/h (2 Bft) 95,74 %
24.09.2016 12:10 20,8 C 27,2 C 23,3 C 73 % 0 lf 1023,8 hPa 0,0 l/m 2 min 0 min 614 W/m 12,6 km/h (3 Bft) 95,74 %
24.09.2016 12:12 20,9 C 27,8 C 23,3 C 72 % 0 lf 1023,8 hPa 0,0 l/m 2 min 0 min 642 W/m 12,6 km/h (3 Bft) 97,87 %
24.09.2016 12:14 21,0 C 27,8 C 23,3 C 72 % 0 lf 1023,7 hPa 0,0 l/m 2 min 0 min 585 W/m 12,6 km/h (3 Bft) 97,87 %
24.09.2016 12:16 21,1 C 29,4 C 22,8 C 72 % 0 lf 1023,7 hPa 0,0 l/m 2 min 0 min 572 W/m 10,5 km/h (2 Bft) 97,83 %
24.09.2016 12:18 21,2 C 29,4 C 22,8 C 72 % 0 lf 1023,7 hPa 0,0 l/m 2 min 0 min 554 W/m 8,4 km/h (2 Bft) 97,87 %
24.09.2016 12:20 21,3 C 28,3 C 22,8 C 71 % 0 lf 1023,8 hPa 0,0 l/m 2 min 0 min 555 W/m 16,7 km/h (3 Bft) 91,49 %
24.09.2016 12:22 21,4 C 27,8 C 23,3 C 70 % 0 lf 1023,7 hPa 0,0 l/m 2 min 0 min 556 W/m 10,5 km/h (2 Bft) 97,87 %
24.09.2016 12:24 21,6 C 28,3 C 23,3 C 70 % 0 lf 1023,7 hPa 0,0 l/m 2 min 0 min 566 W/m 8,4 km/h (2 Bft) 97,87 %
24.09.2016 12:26 21,6 C 27,8 C 23,3 C 69 % 0 lf 1023,7 hPa 0,0 l/m 2 min 0 min 569 W/m 10,5 km/h (2 Bft) 97,87 %
24.09.2016 12:28 21,7 C 28,3 C 23,3 C 69 % 0 lf 1023,7 hPa 0,0 l/m 2 min 0 min 571 W/m 8,4 km/h (2 Bft) 97,83 %
24.09.2016 12:30 21,8 C 29,4 C 23,3 C 69 % 0 lf 1023,7 hPa 0,0 l/m 2 min 0 min 573 W/m 8,4 km/h (2 Bft) 97,87 %
24.09.2016 12:32 21,9 C 30,6 C 23,3 C 69 % 0 lf 1023,7 hPa 0,0 l/m 2 min 0 min 577 W/m 10,5 km/h (2 Bft) 98,15 %
24.09.2016 12:34 22,1 C 31,1 C 23,9 C 69 % 0 lf 1023,7 hPa 0,0 l/m 2 min 0 min 1166 W/m 6,3 km/h (2 Bft) 95,74 %
24.09.2016 12:36 22,1 C 28,9 C 24,4 C 67 % 0 lf 1023,7 hPa 0,0 l/m 2 min 0 min 570 W/m 6,3 km/h (2 Bft) 97,37 %
24.09.2016 12:38 22,2 C 30,6 C 25,0 C 68 % 0 lf 1023,7 hPa 0,0 l/m 2 min 0 min 573 W/m 12,6 km/h (3 Bft) 95,65 %
24.09.2016 12:40 22,3 C 32,8 C 24,4 C 68 % 0 lf 1023,6 hPa 0,0 l/m 2 min 0 min 574 W/m 8,4 km/h (2 Bft) 95,74 %
24.09.2016 12:42 22,4 C 31,7 C 23,9 C 68 % 0 lf 1023,6 hPa 0,0 l/m 2 min 0 min 574 W/m 10,5 km/h (2 Bft) 95,74 %
24.09.2016 12:44 22,5 C 29,4 C 23,9 C 67 % 0 lf 1023,7 hPa 0,0 l/m 2 min 0 min 571 W/m 12,6 km/h (3 Bft) 97,87 %
24.09.2016 12:46 22,6 C 27,2 C 23,3 C 66 % 0 lf 1023,6 hPa 0,0 l/m 2 min 0 min 571 W/m 12,6 km/h (3 Bft) 95,74 %
24.09.2016 12:48 22,7 C 27,2 C 23,3 C 66 % 0 lf 1023,6 hPa 0,0 l/m 2 min 0 min 583 W/m 12,6 km/h (3 Bft) 97,87 %
24.09.2016 12:50 22,7 C 28,3 C 23,3 C 66 % 0 lf 1023,6 hPa 0,0 l/m 2 min 0 min 590 W/m 8,4 km/h (2 Bft) 95,65 %
24.09.2016 12:52 22,8 C 31,1 C 22,8 C 66 % 0 lf 1023,6 hPa 0,0 l/m 2 min 0 min 583 W/m 6,3 km/h (2 Bft) 93,75 %
24.09.2016 12:54 22,8 C 30,6 C 22,8 C 66 % 0 lf 1023,5 hPa 0,0 l/m 2 min 0 min 590 W/m 8,4 km/h (2 Bft) 97,87 %
24.09.2016 12:56 22,9 C 29,4 C 22,8 C 64 % 0 lf 1023,5 hPa 0,0 l/m 2 min 0 min 591 W/m 16,7 km/h (3 Bft) 97,87 %
24.09.2016 12:58 22,9 C 29,4 C 22,8 C 63 % 0 lf 1023,5 hPa 0,0 l/m 2 min 0 min 592 W/m 10,5 km/h (2 Bft) 95,74 %
24.09.2016 13:00 23,0 C 30,6 C 22,2 C 62 % 0 lf 1023,5 hPa 0,0 l/m 2 min 0 min 597 W/m 10,5 km/h (2 Bft) 97,87 %
24.09.2016 13:02 23,1 C 30,6 C 22,2 C 62 % 0 lf 1023,5 hPa 0,0 l/m 2 min 0 min 638 W/m 12,6 km/h (3 Bft) 97,87 %
24.09.2016 13:04 23,1 C 31,7 C 22,2 C 63 % 0 lf 1023,5 hPa 0,0 l/m 2 min 0 min 598 W/m 10,5 km/h (2 Bft) 97,87 %
24.09.2016 13:06 23,2 C 33,3 C 22,2 C 63 % 0 lf 1023,4 hPa 0,0 l/m 2 min 0 min 599 W/m 2,1 km/h (1 Bft) 100,00 %
24.09.2016 13:08 23,3 C 33,3 C 22,2 C 62 % 0 lf 1023,4 hPa 0,0 l/m 2 min 0 min 599 W/m 0,0 km/h (0 Bft) 100,00 %
24.09.2016 13:10 23,3 C 32,2 C 22,2 C 61 % 0 lf 1023,4 hPa 0,0 l/m 2 min 0 min 602 W/m 6,3 km/h (2 Bft) 100,00 %
24.09.2016 13:12 23,4 C 32,8 C 22,2 C 62 % 0 lf 1023,2 hPa 0,0 l/m 2 min 0 min 598 W/m 6,3 km/h (2 Bft) 97,87 %
24.09.2016 13:14 23,6 C 31,7 C 22,2 C 62 % 0 lf 1023,1 hPa 0,0 l/m 2 min 0 min 608 W/m 8,4 km/h (2 Bft) 95,65 %
24.09.2016 13:16 23,7 C 29,4 C 22,8 C 61 % 0 lf 1023,2 hPa 0,0 l/m 2 min 0 min 1072 W/m 14,6 km/h (3 Bft) 97,87 %
24.09.2016 13:18 23,7 C 30,6 C 22,2 C 61 % 0 lf 1023,2 hPa 0,0 l/m 2 min 0 min 1311 W/m 14,6 km/h (3 Bft) 97,87 %
24.09.2016 13:20 23,8 C 32,8 C 22,2 C 61 % 0 lf 1023,2 hPa 0,0 l/m 2 min 0 min 654 W/m 8,4 km/h (2 Bft) 100,00 %
24.09.2016 13:22 23,9 C 28,9 C 22,8 C 60 % 0 lf 1023,1 hPa 0,0 l/m 2 min 0 min 604 W/m 16,7 km/h (3 Bft) 93,62 %
24.09.2016 13:24 23,9 C 29,4 C 22,8 C 61 % 0 lf 1023,1 hPa 0,0 l/m 2 min 0 min 584 W/m 18,8 km/h (3 Bft) 95,74 %
24.09.2016 13:26 23,9 C 30,6 C 22,2 C 60 % 0 lf 1023,1 hPa 0,0 l/m 2 min 0 min 580 W/m 14,6 km/h (3 Bft) 95,65 %
24.09.2016 13:28 23,9 C 31,1 C 22,2 C 60 % 0 lf 1023,1 hPa 0,0 l/m 2 min 0 min 589 W/m 12,6 km/h (3 Bft) 95,74 %
24.09.2016 13:30 24,0 C 32,2 C 22,8 C 60 % 0 lf 1023,1 hPa 0,0 l/m 2 min 0 min 591 W/m 8,4 km/h (2 Bft) 87,23 %
24.09.2016 13:32 24,0 C 31,7 C 22,2 C 59 % 0 lf 1023,1 hPa 0,0 l/m 2 min 0 min 595 W/m 8,4 km/h (2 Bft) 95,74 %
24.09.2016 13:34 24,0 C 30,6 C 22,2 C 59 % 0 lf 1023,1 hPa 0,0 l/m 2 min 0 min 594 W/m 14,6 km/h (3 Bft) 95,74 %
24.09.2016 13:36 24,1 C 29,4 C 22,8 C 60 % 0 lf 1023,0 hPa 0,0 l/m 2 min 0 min 592 W/m 18,8 km/h (3 Bft) 92,45 %
24.09.2016 13:38 24,1 C 28,9 C 22,8 C 60 % 0 lf 1023,0 hPa 0,0 l/m 2 min 0 min 580 W/m 14,6 km/h (3 Bft) 93,62 %
24.09.2016 13:40 24,1 C 28,3 C 22,8 C 59 % 0 lf 1023,0 hPa 0,0 l/m 2 min 0 min 485 W/m 10,5 km/h (2 Bft) 93,62 %
24.09.2016 13:42 24,1 C 28,9 C 22,8 C 59 % 0 lf 1022,9 hPa 0,0 l/m 2 min 0 min 532 W/m 10,5 km/h (2 Bft) 91,43 %
24.09.2016 13:44 24,1 C 27,8 C 22,8 C 58 % 0 lf 1023,0 hPa 0,0 l/m 2 min 0 min 598 W/m 8,4 km/h (2 Bft) 96,15 %
24.09.2016 13:46 24,1 C 27,2 C 22,8 C 59 % 0 lf 1022,9 hPa 0,0 l/m 2 min 0 min 515 W/m 6,3 km/h (2 Bft) 97,87 %
24.09.2016 13:48 24,1 C 28,9 C 23,3 C 59 % 0 lf 1022,8 hPa 0,0 l/m 2 min 0 min 416 W/m 4,2 km/h (1 Bft) 95,74 %
24.09.2016 13:50 24,1 C 30,0 C 23,3 C 60 % 0 lf 1022,8 hPa 0,0 l/m 2 min 0 min 629 W/m 8,4 km/h (2 Bft) 95,65 %
24.09.2016 13:52 24,1 C 28,3 C 23,3 C 59 % 0 lf 1022,8 hPa 0,0 l/m 2 min 0 min 331 W/m 8,4 km/h (2 Bft) 89,36 %
24.09.2016 13:54 24,1 C 28,3 C 23,3 C 59 % 0 lf 1022,8 hPa 0,0 l/m 0 min 0 min 256 W/m 6,3 km/h (2 Bft) 93,62 %
24.09.2016 13:56 24,1 C 27,8 C 22,8 C 58 % 0 lf 1022,8 hPa 0,0 l/m 0 min 0 min 265 W/m 4,2 km/h (1 Bft) 89,36 %
24.09.2016 13:58 24,1 C 27,2 C 22,8 C 59 % 0 lf 1022,8 hPa 0,0 l/m 0 min 0 min 229 W/m 10,5 km/h (2 Bft) 93,62 %
24.09.2016 14:00 24,1 C 26,1 C 22,8 C 58 % 0 lf 1022,7 hPa 0,0 l/m 0 min 0 min 182 W/m 8,4 km/h (2 Bft) 93,62 %
24.09.2016 14:02 24,1 C 25,6 C 22,2 C 59 % 0 lf 1022,7 hPa 0,0 l/m 0 min 0 min 156 W/m 8,4 km/h (2 Bft) 93,48 %
24.09.2016 14:04 24,0 C 28,3 C 22,2 C 60 % 0 lf 1022,7 hPa 0,0 l/m 0 min 0 min 294 W/m 6,3 km/h (2 Bft) 95,74 %
24.09.2016 14:06 24,1 C 31,1 C 22,8 C 60 % 0 lf 1022,6 hPa 0,0 l/m 2 min 0 min 634 W/m 6,3 km/h (2 Bft) 97,87 %
24.09.2016 14:08 24,1 C 32,8 C 23,3 C 59 % 0 lf 1022,6 hPa 0,0 l/m 2 min 0 min 657 W/m 4,2 km/h (1 Bft) 97,87 %
24.09.2016 14:10 24,1 C 32,8 C 23,9 C 59 % 0 lf 1022,6 hPa 0,0 l/m 2 min 0 min 616 W/m 6,3 km/h (2 Bft) 95,74 %
24.09.2016 14:12 24,2 C 32,8 C 23,9 C 59 % 0 lf 1022,5 hPa 0,0 l/m 2 min 0 min 622 W/m 8,4 km/h (2 Bft) 93,62 %
24.09.2016 14:14 24,2 C 32,2 C 23,9 C 59 % 0 lf 1022,5 hPa 0,0 l/m 2 min 0 min 609 W/m 8,4 km/h (2 Bft) 95,65 %
24.09.2016 14:16 24,3 C 31,1 C 23,9 C 59 % 0 lf 1022,6 hPa 0,0 l/m 2 min 0 min 599 W/m 16,7 km/h (3 Bft) 93,62 %
24.09.2016 14:18 24,4 C 30,6 C 23,9 C 57 % 0 lf 1022,5 hPa 0,0 l/m 2 min 0 min 572 W/m 14,6 km/h (3 Bft) 95,74 %
24.09.2016 14:20 24,4 C 29,4 C 23,3 C 56 % 0 lf 1022,5 hPa 0,0 l/m 2 min 0 min 601 W/m 20,9 km/h (4 Bft) 95,74 %
24.09.2016 14:22 24,4 C 27,8 C 23,3 C 55 % 0 lf 1022,4 hPa 0,0 l/m 2 min 0 min 489 W/m 20,9 km/h (4 Bft) 95,74 %
24.09.2016 14:24 24,5 C 28,9 C 23,3 C 57 % 0 lf 1022,4 hPa 0,0 l/m 2 min 0 min 616 W/m 16,7 km/h (3 Bft) 93,48 %
24.09.2016 14:26 24,5 C 27,2 C 23,3 C 57 % 0 lf 1022,4 hPa 0,0 l/m 2 min 0 min 615 W/m 18,8 km/h (3 Bft) 97,87 %
24.09.2016 14:28 24,4 C 26,1 C 23,3 C 55 % 0 lf 1022,4 hPa 0,0 l/m 2 min 0 min 341 W/m 20,9 km/h (4 Bft) 97,87 %
24.09.2016 14:30 24,4 C 26,1 C 23,3 C 55 % 0 lf 1022,3 hPa 0,0 l/m 2 min 0 min 591 W/m 16,7 km/h (3 Bft) 97,87 %
24.09.2016 14:32 24,3 C 27,8 C 23,9 C 56 % 0 lf 1022,3 hPa 0,0 l/m 2 min 0 min 629 W/m 14,6 km/h (3 Bft) 95,74 %
24.09.2016 14:34 24,3 C 29,4 C 24,4 C 56 % 0 lf 1022,3 hPa 0,0 l/m 2 min 0 min 625 W/m 10,5 km/h (2 Bft) 97,87 %
24.09.2016 14:36 24,3 C 30,0 C 24,4 C 56 % 0 lf 1022,3 hPa 0,0 l/m 2 min 0 min 608 W/m 20,9 km/h (4 Bft) 95,24 %
24.09.2016 14:38 24,4 C 30,0 C 24,4 C 56 % 0 lf 1022,3 hPa 0,0 l/m 2 min 0 min 626 W/m 16,7 km/h (3 Bft) 95,74 %
24.09.2016 14:40 24,4 C 30,6 C 24,4 C 56 % 0 lf 1022,3 hPa 0,0 l/m 2 min 0 min 779 W/m 16,7 km/h (3 Bft) 91,49 %
24.09.2016 14:42 24,5 C 30,6 C 24,4 C 56 % 0 lf 1022,2 hPa 0,0 l/m 2 min 0 min 1066 W/m 8,4 km/h (2 Bft) 95,74 %
24.09.2016 14:44 24,5 C 30,6 C 24,4 C 56 % 0 lf 1022,2 hPa 0,0 l/m 2 min 0 min 1095 W/m 14,6 km/h (3 Bft) 97,87 %
24.09.2016 14:46 24,6 C 28,3 C 23,9 C 52 % 0 lf 1022,1 hPa 0,0 l/m 2 min 0 min 1095 W/m 14,6 km/h (3 Bft) 93,62 %
24.09.2016 14:48 24,6 C 30,0 C 23,9 C 52 % 0 lf 1022,0 hPa 0,0 l/m 2 min 0 min 865 W/m 18,8 km/h (3 Bft) 95,65 %
24.09.2016 14:50 24,6 C 30,6 C 23,9 C 53 % 0 lf 1022,0 hPa 0,0 l/m 2 min 0 min 635 W/m 12,6 km/h (3 Bft) 97,87 %
24.09.2016 14:52 24,6 C 30,6 C 24,4 C 53 % 0 lf 1021,9 hPa 0,0 l/m 2 min 0 min 619 W/m 10,5 km/h (2 Bft) 97,87 %
24.09.2016 14:54 24,7 C 31,7 C 24,4 C 53 % 0 lf 1021,9 hPa 0,0 l/m 2 min 0 min 670 W/m 14,6 km/h (3 Bft) 97,87 %
24.09.2016 14:56 24,8 C 32,8 C 24,4 C 53 % 0 lf 1021,8 hPa 0,0 l/m 2 min 0 min 1129 W/m 14,6 km/h (3 Bft) 95,74 %
24.09.2016 14:58 24,8 C 33,3 C 24,4 C 52 % 0 lf 1021,9 hPa 0,0 l/m 2 min 0 min 589 W/m 14,6 km/h (3 Bft) 97,87 %
24.09.2016 15:00 24,8 C 31,7 C 24,4 C 52 % 0 lf 1021,9 hPa 0,0 l/m 2 min 0 min 595 W/m 14,6 km/h (3 Bft) 97,83 %
24.09.2016 15:02 24,9 C 30,0 C 23,9 C 51 % 0 lf 1021,8 hPa 0,0 l/m 2 min 0 min 933 W/m 12,6 km/h (3 Bft) 100,00 %
24.09.2016 15:04 24,9 C 31,7 C 23,9 C 52 % 0 lf 1021,8 hPa 0,0 l/m 2 min 0 min 895 W/m 6,3 km/h (2 Bft) 100,00 %
24.09.2016 15:06 25,0 C 33,9 C 24,4 C 53 % 0 lf 1021,8 hPa 0,0 l/m 2 min 0 min 619 W/m 8,4 km/h (2 Bft) 94,00 %
24.09.2016 15:08 25,1 C 33,9 C 24,4 C 52 % 0 lf 1021,8 hPa 0,0 l/m 2 min 0 min 615 W/m 10,5 km/h (2 Bft) 97,87 %
24.09.2016 15:10 25,1 C 32,2 C 24,4 C 51 % 0 lf 1021,7 hPa 0,0 l/m 2 min 0 min 618 W/m 6,3 km/h (2 Bft) 100,00 %
24.09.2016 15:12 25,2 C 31,1 C 24,4 C 50 % 0 lf 1021,7 hPa 0,0 l/m 2 min 0 min 619 W/m 12,6 km/h (3 Bft) 97,83 %
24.09.2016 15:14 25,2 C 31,1 C 24,4 C 50 % 0 lf 1021,7 hPa 0,0 l/m 2 min 0 min 622 W/m 20,9 km/h (4 Bft) 100,00 %
24.09.2016 15:16 25,3 C 30,6 C 24,4 C 50 % 0 lf 1021,7 hPa 0,0 l/m 2 min 0 min 661 W/m 14,6 km/h (3 Bft) 95,74 %
24.09.2016 15:18 25,3 C 30,0 C 24,4 C 50 % 0 lf 1021,7 hPa 0,0 l/m 2 min 0 min 762 W/m 12,6 km/h (3 Bft) 100,00 %
24.09.2016 15:20 25,4 C 30,6 C 24,4 C 51 % 0 lf 1021,7 hPa 0,0 l/m 2 min 0 min 763 W/m 10,5 km/h (2 Bft) 95,74 %
24.09.2016 15:22 25,4 C 30,0 C 24,4 C 50 % 0 lf 1021,6 hPa 0,0 l/m 2 min 0 min 763 W/m 16,7 km/h (3 Bft) 95,74 %
24.09.2016 15:24 25,4 C 31,1 C 24,4 C 50 % 0 lf 1021,6 hPa 0,0 l/m 2 min 0 min 589 W/m 10,5 km/h (2 Bft) 97,87 %
24.09.2016 15:26 25,4 C 31,7 C 24,4 C 51 % 0 lf 1021,5 hPa 0,0 l/m 2 min 0 min 595 W/m 8,4 km/h (2 Bft) 97,83 %
24.09.2016 15:28 25,4 C 31,1 C 24,4 C 51 % 0 lf 1021,4 hPa 0,0 l/m 2 min 0 min 774 W/m 10,5 km/h (2 Bft) 97,87 %
24.09.2016 15:30 25,4 C 30,0 C 24,4 C 50 % 0 lf 1021,4 hPa 0,0 l/m 2 min 0 min 1000 W/m 10,5 km/h (2 Bft) 89,36 %
24.09.2016 15:32 25,4 C 28,3 C 24,4 C 51 % 0 lf 1021,4 hPa 0,0 l/m 2 min 0 min 408 W/m 16,7 km/h (3 Bft) 97,87 %
24.09.2016 15:34 25,4 C 26,7 C 23,9 C 50 % 0 lf 1021,4 hPa 0,0 l/m 0 min 0 min 186 W/m 14,6 km/h (3 Bft) 95,74 %
24.09.2016 15:36 25,3 C 26,7 C 23,9 C 51 % 0 lf 1021,3 hPa 0,0 l/m 0 min 0 min 184 W/m 14,6 km/h (3 Bft) 94,34 %
24.09.2016 15:38 25,3 C 27,2 C 23,3 C 50 % 0 lf 1021,3 hPa 0,0 l/m 2 min 0 min 272 W/m 18,8 km/h (3 Bft) 95,74 %
24.09.2016 15:40 25,2 C 27,2 C 23,3 C 51 % 0 lf 1021,3 hPa 0,0 l/m 2 min 0 min 468 W/m 18,8 km/h (3 Bft) 93,62 %
24.09.2016 15:42 25,2 C 27,8 C 23,3 C 50 % 0 lf 1021,3 hPa 0,0 l/m 2 min 0 min 468 W/m 12,6 km/h (3 Bft) 95,65 %
24.09.2016 15:44 25,1 C 27,8 C 23,3 C 51 % 0 lf 1021,3 hPa 0,0 l/m 2 min 0 min 271 W/m 10,5 km/h (2 Bft) 91,49 %
24.09.2016 15:46 25,1 C 27,2 C 23,3 C 51 % 0 lf 1021,3 hPa 0,0 l/m 0 min 0 min 170 W/m 8,4 km/h (2 Bft) 95,74 %
24.09.2016 15:48 25,1 C 27,2 C 23,3 C 50 % 0 lf 1021,2 hPa 0,0 l/m 2 min 0 min 362 W/m 12,6 km/h (3 Bft) 95,74 %
24.09.2016 15:50 25,1 C 28,9 C 23,3 C 51 % 0 lf 1021,2 hPa 0,0 l/m 2 min 0 min 482 W/m 12,6 km/h (3 Bft) 93,62 %
24.09.2016 15:52 25,1 C 28,9 C 23,3 C 51 % 0 lf 1021,3 hPa 0,0 l/m 2 min 0 min 484 W/m 18,8 km/h (3 Bft) 91,43 %
24.09.2016 15:54 25,0 C 28,3 C 23,3 C 50 % 0 lf 1021,2 hPa 0,0 l/m 2 min 0 min 484 W/m 18,8 km/h (3 Bft) 94,23 %
24.09.2016 15:56 24,9 C 28,9 C 23,3 C 50 % 0 lf 1021,1 hPa 0,0 l/m 2 min 0 min 480 W/m 16,7 km/h (3 Bft) 93,62 %
24.09.2016 15:58 24,9 C 28,9 C 23,3 C 50 % 0 lf 1021,2 hPa 0,0 l/m 2 min 0 min 459 W/m 23,0 km/h (4 Bft) 91,30 %
24.09.2016 16:00 24,9 C 29,4 C 23,3 C 50 % 0 lf 1021,1 hPa 0,0 l/m 2 min 0 min 461 W/m 20,9 km/h (4 Bft) 93,62 %
24.09.2016 16:02 24,9 C 28,9 C 23,3 C 50 % 0 lf 1021,1 hPa 0,0 l/m 2 min 0 min 456 W/m 20,9 km/h (4 Bft) 91,49 %
24.09.2016 16:04 24,9 C 28,9 C 23,3 C 50 % 0 lf 1021,2 hPa 0,0 l/m 2 min 0 min 465 W/m 23,0 km/h (4 Bft) 91,49 %
24.09.2016 16:06 24,9 C 30,0 C 23,3 C 51 % 0 lf 1021,1 hPa 0,0 l/m 2 min 0 min 465 W/m 14,6 km/h (3 Bft) 93,02 %
24.09.2016 16:08 24,9 C 29,4 C 23,3 C 50 % 0 lf 1021,1 hPa 0,0 l/m 2 min 0 min 445 W/m 14,6 km/h (3 Bft) 93,62 %
24.09.2016 16:10 24,9 C 28,9 C 23,3 C 49 % 0 lf 1021,1 hPa 0,0 l/m 2 min 0 min 422 W/m 14,6 km/h (3 Bft) 91,30 %
24.09.2016 16:12 24,9 C 29,4 C 23,3 C 49 % 0 lf 1021,0 hPa 0,0 l/m 2 min 0 min 386 W/m 8,4 km/h (2 Bft) 95,74 %
24.09.2016 16:14 24,9 C 30,0 C 22,8 C 50 % 0 lf 1021,0 hPa 0,0 l/m 2 min 0 min 370 W/m 10,5 km/h (2 Bft) 95,74 %
24.09.2016 16:16 24,9 C 30,0 C 22,8 C 50 % 0 lf 1021,0 hPa 0,0 l/m 2 min 0 min 374 W/m 12,6 km/h (3 Bft) 95,74 %
24.09.2016 16:18 24,9 C 30,0 C 22,8 C 51 % 0 lf 1020,9 hPa 0,0 l/m 2 min 0 min 389 W/m 10,5 km/h (2 Bft) 95,74 %
24.09.2016 16:20 24,9 C 30,6 C 22,8 C 51 % 0 lf 1020,8 hPa 0,0 l/m 2 min 0 min 412 W/m 14,6 km/h (3 Bft) 97,87 %
24.09.2016 16:22 24,9 C 30,6 C 22,8 C 50 % 0 lf 1020,9 hPa 0,0 l/m 2 min 0 min 409 W/m 14,6 km/h (3 Bft) 95,65 %
24.09.2016 16:24 24,9 C 30,0 C 22,8 C 50 % 0 lf 1020,8 hPa 0,0 l/m 2 min 0 min 412 W/m 10,5 km/h (2 Bft) 97,87 %
24.09.2016 16:26 24,9 C 30,0 C 22,8 C 50 % 0 lf 1020,8 hPa 0,0 l/m 2 min 0 min 398 W/m 10,5 km/h (2 Bft) 97,87 %
24.09.2016 16:28 24,9 C 29,4 C 22,8 C 49 % 0 lf 1020,8 hPa 0,0 l/m 2 min 0 min 395 W/m 16,7 km/h (3 Bft) 95,74 %
24.09.2016 16:30 24,9 C 30,0 C 22,8 C 49 % 0 lf 1020,7 hPa 0,0 l/m 2 min 0 min 392 W/m 12,6 km/h (3 Bft) 93,62 %
24.09.2016 16:32 24,9 C 30,0 C 22,8 C 49 % 0 lf 1020,8 hPa 0,0 l/m 2 min 0 min 384 W/m 12,6 km/h (3 Bft) 97,87 %
24.09.2016 16:34 24,9 C 29,4 C 22,8 C 49 % 0 lf 1020,7 hPa 0,0 l/m 2 min 0 min 378 W/m 12,6 km/h (3 Bft) 95,74 %
24.09.2016 16:36 24,9 C 30,0 C 22,8 C 49 % 0 lf 1020,7 hPa 0,0 l/m 2 min 0 min 373 W/m 10,5 km/h (2 Bft) 96,00 %
24.09.2016 16:38 24,9 C 29,4 C 22,8 C 49 % 0 lf 1020,6 hPa 0,0 l/m 2 min 0 min 372 W/m 10,5 km/h (2 Bft) 100,00 %
24.09.2016 16:40 25,0 C 30,6 C 22,8 C 50 % 0 lf 1020,6 hPa 0,0 l/m 2 min 0 min 368 W/m 8,4 km/h (2 Bft) 100,00 %
24.09.2016 16:42 25,0 C 30,0 C 22,8 C 50 % 0 lf 1020,6 hPa 0,0 l/m 2 min 0 min 366 W/m 12,6 km/h (3 Bft) 97,87 %
24.09.2016 16:44 25,0 C 30,0 C 22,8 C 50 % 0 lf 1020,6 hPa 0,0 l/m 2 min 0 min 361 W/m 10,5 km/h (2 Bft) 97,87 %
24.09.2016 16:46 25,0 C 30,0 C 22,2 C 51 % 0 lf 1020,6 hPa 0,0 l/m 2 min 0 min 356 W/m 18,8 km/h (3 Bft) 100,00 %
24.09.2016 16:48 25,0 C 29,4 C 22,2 C 51 % 0 lf 1020,5 hPa 0,0 l/m 2 min 0 min 350 W/m 16,7 km/h (3 Bft) 95,74 %
24.09.2016 16:50 25,0 C 28,9 C 22,2 C 51 % 0 lf 1020,6 hPa 0,0 l/m 2 min 0 min 340 W/m 18,8 km/h (3 Bft) 95,74 %
24.09.2016 16:52 25,0 C 29,4 C 22,2 C 52 % 0 lf 1020,5 hPa 0,0 l/m 2 min 0 min 331 W/m 10,5 km/h (2 Bft) 100,00 %
24.09.2016 16:54 25,0 C 29,4 C 22,2 C 51 % 0 lf 1020,4 hPa 0,0 l/m 2 min 0 min 328 W/m 16,7 km/h (3 Bft) 97,87 %
24.09.2016 16:56 25,0 C 29,4 C 22,2 C 52 % 0 lf 1020,4 hPa 0,0 l/m 2 min 0 min 328 W/m 20,9 km/h (4 Bft) 97,87 %
24.09.2016 16:58 25,0 C 28,9 C 22,2 C 51 % 0 lf 1020,3 hPa 0,0 l/m 2 min 0 min 321 W/m 18,8 km/h (3 Bft) 97,83 %
24.09.2016 17:00 24,9 C 28,3 C 22,2 C 52 % 0 lf 1020,4 hPa 0,0 l/m 2 min 0 min 319 W/m 18,8 km/h (3 Bft) 97,87 %
24.09.2016 17:02 24,9 C 28,9 C 22,2 C 51 % 0 lf 1020,3 hPa 0,0 l/m 2 min 0 min 314 W/m 14,6 km/h (3 Bft) 100,00 %
24.09.2016 17:04 24,9 C 28,9 C 22,2 C 51 % 0 lf 1020,3 hPa 0,0 l/m 2 min 0 min 308 W/m 14,6 km/h (3 Bft) 100,00 %
24.09.2016 17:06 24,9 C 29,4 C 22,2 C 51 % 0 lf 1020,3 hPa 0,0 l/m 2 min 0 min 305 W/m 16,7 km/h (3 Bft) 95,74 %
24.09.2016 17:08 24,9 C 29,4 C 22,2 C 51 % 0 lf 1020,3 hPa 0,0 l/m 2 min 0 min 303 W/m 16,7 km/h (3 Bft) 100,00 %
24.09.2016 17:10 24,9 C 30,0 C 22,2 C 51 % 0 lf 1020,2 hPa 0,0 l/m 2 min 0 min 295 W/m 12,6 km/h (3 Bft) 95,74 %
24.09.2016 17:12 24,9 C 28,9 C 22,2 C 50 % 0 lf 1020,2 hPa 0,0 l/m 2 min 0 min 290 W/m 14,6 km/h (3 Bft) 95,74 %
24.09.2016 17:14 24,9 C 28,3 C 22,2 C 50 % 0 lf 1020,2 hPa 0,0 l/m 2 min 0 min 286 W/m 16,7 km/h (3 Bft) 91,49 %
24.09.2016 17:16 24,9 C 28,3 C 22,2 C 50 % 0 lf 1020,1 hPa 0,0 l/m 2 min 0 min 280 W/m 20,9 km/h (4 Bft) 97,87 %
24.09.2016 17:18 24,9 C 27,8 C 22,2 C 50 % 0 lf 1020,1 hPa 0,0 l/m 2 min 0 min 274 W/m 23,0 km/h (4 Bft) 93,62 %
24.09.2016 17:20 24,9 C 27,8 C 22,2 C 50 % 0 lf 1020,1 hPa 0,0 l/m 2 min 0 min 267 W/m 16,7 km/h (3 Bft) 95,65 %
24.09.2016 17:22 24,8 C 28,3 C 22,2 C 50 % 0 lf 1020,0 hPa 0,0 l/m 2 min 0 min 259 W/m 23,0 km/h (4 Bft) 95,74 %
24.09.2016 17:24 24,8 C 28,3 C 21,7 C 50 % 0 lf 1019,9 hPa 0,0 l/m 2 min 0 min 254 W/m 18,8 km/h (3 Bft) 97,87 %
24.09.2016 17:26 24,8 C 27,8 C 22,2 C 50 % 0 lf 1019,9 hPa 0,0 l/m 2 min 0 min 248 W/m 18,8 km/h (3 Bft) 97,87 %
24.09.2016 17:28 24,8 C 27,8 C 22,2 C 50 % 0 lf 1019,9 hPa 0,0 l/m 2 min 0 min 242 W/m 25,1 km/h (4 Bft) 91,49 %
24.09.2016 17:30 24,7 C 27,8 C 21,7 C 51 % 0 lf 1019,8 hPa 0,0 l/m 2 min 0 min 236 W/m 16,7 km/h (3 Bft) 97,87 %
24.09.2016 17:32 24,7 C 27,8 C 21,7 C 51 % 0 lf 1019,9 hPa 0,0 l/m 2 min 0 min 230 W/m 18,8 km/h (3 Bft) 93,48 %
24.09.2016 17:34 24,7 C 28,3 C 21,7 C 51 % 0 lf 1019,8 hPa 0,0 l/m 2 min 0 min 224 W/m 18,8 km/h (3 Bft) 93,62 %
24.09.2016 17:36 24,7 C 28,3 C 21,7 C 51 % 0 lf 1019,8 hPa 0,0 l/m 2 min 0 min 217 W/m 18,8 km/h (3 Bft) 95,35 %
24.09.2016 17:38 24,7 C 28,3 C 21,7 C 51 % 0 lf 1019,8 hPa 0,0 l/m 2 min 0 min 211 W/m 16,7 km/h (3 Bft) 93,62 %
24.09.2016 17:40 24,7 C 28,3 C 21,7 C 51 % 0 lf 1019,8 hPa 0,0 l/m 2 min 0 min 205 W/m 20,9 km/h (4 Bft) 91,49 %
24.09.2016 17:42 24,6 C 27,8 C 21,7 C 51 % 0 lf 1019,8 hPa 0,0 l/m 2 min 0 min 199 W/m 23,0 km/h (4 Bft) 93,62 %
24.09.2016 17:44 24,6 C 27,2 C 21,7 C 51 % 0 lf 1019,8 hPa 0,0 l/m 2 min 0 min 192 W/m 12,6 km/h (3 Bft) 95,65 %
24.09.2016 17:46 24,6 C 27,8 C 21,7 C 51 % 0 lf 1019,7 hPa 0,0 l/m 2 min 0 min 185 W/m 14,6 km/h (3 Bft) 95,74 %
24.09.2016 17:48 24,6 C 27,8 C 21,1 C 51 % 0 lf 1019,7 hPa 0,0 l/m 2 min 0 min 179 W/m 12,6 km/h (3 Bft) 91,49 %
24.09.2016 17:50 24,6 C 27,8 C 21,1 C 52 % 0 lf 1019,7 hPa 0,0 l/m 2 min 0 min 172 W/m 12,6 km/h (3 Bft) 95,74 %
24.09.2016 17:52 24,6 C 27,8 C 21,1 C 51 % 0 lf 1019,7 hPa 0,0 l/m 2 min 0 min 167 W/m 16,7 km/h (3 Bft) 95,74 %
24.09.2016 17:54 24,5 C 27,2 C 21,1 C 52 % 0 lf 1019,7 hPa 0,0 l/m 2 min 0 min 160 W/m 16,7 km/h (3 Bft) 95,65 %
24.09.2016 17:56 24,4 C 27,2 C 21,1 C 51 % 0 lf 1019,7 hPa 0,0 l/m 2 min 0 min 155 W/m 23,0 km/h (4 Bft) 95,74 %
24.09.2016 17:58 24,4 C 27,2 C 21,1 C 51 % 0 lf 1019,7 hPa 0,0 l/m 2 min 0 min 149 W/m 18,8 km/h (3 Bft) 91,49 %
24.09.2016 18:00 24,4 C 26,7 C 21,1 C 51 % 0 lf 1019,7 hPa 0,0 l/m 2 min 0 min 144 W/m 12,6 km/h (3 Bft) 95,74 %
24.09.2016 18:02 24,3 C 26,1 C 21,1 C 51 % 0 lf 1019,7 hPa 0,0 l/m 2 min 0 min 139 W/m 20,9 km/h (4 Bft) 96,00 %
24.09.2016 18:06 24,3 C 26,1 C 21,1 C 51 % 0 lf 1019,7 hPa 0,0 l/m 2 min 0 min 130 W/m 25,1 km/h (4 Bft) 95,74 %
24.09.2016 18:08 24,2 C 25,6 C 21,1 C 51 % 0 lf 1019,7 hPa 0,0 l/m 2 min 0 min 121 W/m 23,0 km/h (4 Bft) 97,87 %
24.09.2016 18:10 24,2 C 25,6 C 21,1 C 51 % 0 lf 1019,7 hPa 0,0 l/m 2 min 0 min 116 W/m 23,0 km/h (4 Bft) 95,74 %
24.09.2016 18:12 24,1 C 25,0 C 20,6 C 52 % 0 lf 1019,6 hPa 0,0 l/m 2 min 0 min 111 W/m 23,0 km/h (4 Bft) 100,00 %
24.09.2016 18:14 24,1 C 25,0 C 20,6 C 52 % 0 lf 1019,6 hPa 0,0 l/m 2 min 0 min 105 W/m 16,7 km/h (3 Bft) 100,00 %
24.09.2016 18:16 24,0 C 25,0 C 20,6 C 52 % 0 lf 1019,6 hPa 0,0 l/m 2 min 0 min 100 W/m 12,6 km/h (3 Bft) 93,62 %
24.09.2016 18:18 23,9 C 25,0 C 20,6 C 52 % 0 lf 1019,6 hPa 0,0 l/m 2 min 0 min 96 W/m 16,7 km/h (3 Bft) 97,83 %
24.09.2016 18:20 23,9 C 25,0 C 20,6 C 52 % 0 lf 1019,6 hPa 0,0 l/m 2 min 0 min 91 W/m 14,6 km/h (3 Bft) 97,87 %
24.09.2016 18:22 23,9 C 25,0 C 20,6 C 53 % 0 lf 1019,7 hPa 0,0 l/m 2 min 0 min 86 W/m 10,5 km/h (2 Bft) 95,74 %
24.09.2016 18:24 23,8 C 25,0 C 20,0 C 53 % 0 lf 1019,6 hPa 0,0 l/m 2 min 0 min 82 W/m 16,7 km/h (3 Bft) 100,00 %
24.09.2016 18:26 23,7 C 24,4 C 20,0 C 53 % 0 lf 1019,6 hPa 0,0 l/m 2 min 0 min 78 W/m 18,8 km/h (3 Bft) 100,00 %
24.09.2016 18:28 23,7 C 23,9 C 20,0 C 53 % 0 lf 1019,6 hPa 0,0 l/m 2 min 0 min 74 W/m 16,7 km/h (3 Bft) 95,74 %
24.09.2016 18:30 23,6 C 23,9 C 20,0 C 53 % 0 lf 1019,6 hPa 0,0 l/m 2 min 0 min 72 W/m 14,6 km/h (3 Bft) 93,48 %
24.09.2016 18:32 23,6 C 23,9 C 20,0 C 54 % 0 lf 1019,6 hPa 0,0 l/m 0 min 0 min 65 W/m 14,6 km/h (3 Bft) 97,87 %
24.09.2016 18:34 23,6 C 23,3 C 19,4 C 54 % 0 lf 1019,6 hPa 0,0 l/m 0 min 0 min 62 W/m 10,5 km/h (2 Bft) 93,62 %
24.09.2016 18:36 23,5 C 23,3 C 19,4 C 54 % 0 lf 1019,6 hPa 0,0 l/m 0 min 0 min 57 W/m 12,6 km/h (3 Bft) 98,00 %
24.09.2016 18:38 23,4 C 22,8 C 19,4 C 54 % 0 lf 1019,5 hPa 0,0 l/m 0 min 0 min 53 W/m 14,6 km/h (3 Bft) 93,62 %
24.09.2016 18:40 23,4 C 22,8 C 19,4 C 54 % 0 lf 1019,6 hPa 0,0 l/m 0 min 0 min 49 W/m 12,6 km/h (3 Bft) 95,65 %
24.09.2016 18:42 23,3 C 22,8 C 19,4 C 54 % 0 lf 1019,6 hPa 0,0 l/m 0 min 0 min 43 W/m 14,6 km/h (3 Bft) 91,49 %
24.09.2016 18:44 23,3 C 22,2 C 18,9 C 54 % 0 lf 1019,6 hPa 0,0 l/m 0 min 0 min 39 W/m 16,7 km/h (3 Bft) 95,74 %
24.09.2016 18:46 23,2 C 22,2 C 18,9 C 54 % 0 lf 1019,5 hPa 0,0 l/m 0 min 0 min 38 W/m 12,6 km/h (3 Bft) 93,62 %
24.09.2016 18:48 23,2 C 22,2 C 18,9 C 55 % 0 lf 1019,5 hPa 0,0 l/m 0 min 0 min 36 W/m 14,6 km/h (3 Bft) 95,74 %
24.09.2016 18:50 23,1 C 21,7 C 18,9 C 55 % 0 lf 1019,5 hPa 0,0 l/m 0 min 0 min 35 W/m 12,6 km/h (3 Bft) 93,62 %
24.09.2016 18:52 23,0 C 21,7 C 18,9 C 55 % 0 lf 1019,5 hPa 0,0 l/m 0 min 0 min 33 W/m 18,8 km/h (3 Bft) 91,30 %
24.09.2016 18:54 22,9 C 21,7 C 18,9 C 55 % 0 lf 1019,5 hPa 0,0 l/m 0 min 0 min 32 W/m 14,6 km/h (3 Bft) 95,74 %
24.09.2016 18:56 22,9 C 21,7 C 18,9 C 56 % 0 lf 1019,5 hPa 0,0 l/m 0 min 0 min 30 W/m 10,5 km/h (2 Bft) 95,74 %
24.09.2016 18:58 22,8 C 21,7 C 18,3 C 56 % 0 lf 1019,4 hPa 0,0 l/m 0 min 0 min 28 W/m 12,6 km/h (3 Bft) 95,74 %
24.09.2016 19:00 22,7 C 21,7 C 18,3 C 56 % 0 lf 1019,5 hPa 0,0 l/m 0 min 0 min 26 W/m 12,6 km/h (3 Bft) 93,62 %
24.09.2016 19:02 22,7 C 21,1 C 18,3 C 56 % 0 lf 1019,4 hPa 0,0 l/m 0 min 0 min 25 W/m 8,4 km/h (2 Bft) 95,83 %
24.09.2016 19:04 22,6 C 21,1 C 17,8 C 56 % 0 lf 1019,4 hPa 0,0 l/m 0 min 0 min 22 W/m 14,6 km/h (3 Bft) 97,83 %
24.09.2016 19:06 22,6 C 21,1 C 17,8 C 56 % 0 lf 1019,4 hPa 0,0 l/m 0 min 0 min 21 W/m 10,5 km/h (2 Bft) 93,88 %
24.09.2016 19:08 22,5 C 21,1 C 17,8 C 56 % 0 lf 1019,4 hPa 0,0 l/m 0 min 0 min 18 W/m 6,3 km/h (2 Bft) 95,74 %
24.09.2016 19:10 22,4 C 20,6 C 17,8 C 57 % 0 lf 1019,5 hPa 0,0 l/m 0 min 0 min 18 W/m 14,6 km/h (3 Bft) 95,74 %
24.09.2016 19:12 22,3 C 20,6 C 17,2 C 57 % 0 lf 1019,4 hPa 0,0 l/m 0 min 0 min 16 W/m 10,5 km/h (2 Bft) 97,87 %
24.09.2016 19:14 22,2 C 20,6 C 17,2 C 57 % 0 lf 1019,3 hPa 0,0 l/m 0 min 0 min 16 W/m 12,6 km/h (3 Bft) 95,74 %
24.09.2016 19:16 22,1 C 20,6 C 17,2 C 57 % 0 lf 1019,4 hPa 0,0 l/m 0 min 0 min 14 W/m 10,5 km/h (2 Bft) 97,83 %
24.09.2016 19:18 22,1 C 20,6 C 17,2 C 58 % 0 lf 1019,4 hPa 0,0 l/m 0 min 0 min 13 W/m 10,5 km/h (2 Bft) 97,87 %
24.09.2016 19:20 21,9 C 20,0 C 16,7 C 58 % 0 lf 1019,4 hPa 0,0 l/m 0 min 0 min 12 W/m 8,4 km/h (2 Bft) 91,49 %
24.09.2016 19:22 21,9 C 20,0 C 16,7 C 58 % 0 lf 1019,4 hPa 0,0 l/m 0 min 0 min 12 W/m 8,4 km/h (2 Bft) 97,87 %
24.09.2016 19:24 21,8 C 20,0 C 17,2 C 58 % 0 lf 1019,4 hPa 0,0 l/m 0 min 0 min 11 W/m 10,5 km/h (2 Bft) 100,00 %
24.09.2016 19:26 21,7 C 20,0 C 16,7 C 58 % 0 lf 1019,4 hPa 0,0 l/m 0 min 0 min 11 W/m 10,5 km/h (2 Bft) 95,74 %
24.09.2016 19:28 21,6 C 20,0 C 16,7 C 59 % 0 lf 1019,4 hPa 0,0 l/m 0 min 0 min 9 W/m 10,5 km/h (2 Bft) 95,65 %
24.09.2016 19:30 21,6 C 20,0 C 16,7 C 59 % 0 lf 1019,3 hPa 0,0 l/m 0 min 0 min 9 W/m 10,5 km/h (2 Bft) 97,87 %
24.09.2016 19:32 21,4 C 19,4 C 16,1 C 59 % 0 lf 1019,3 hPa 0,0 l/m 0 min 0 min 8 W/m 10,5 km/h (2 Bft) 97,87 %
24.09.2016 19:34 21,3 C 19,4 C 16,1 C 59 % 0 lf 1019,3 hPa 0,0 l/m 0 min 0 min 7 W/m 12,6 km/h (3 Bft) 95,74 %
24.09.2016 19:36 21,3 C 19,4 C 16,7 C 59 % 0 lf 1019,4 hPa 0,0 l/m 0 min 0 min 7 W/m 12,6 km/h (3 Bft) 97,87 %
24.09.2016 19:38 21,2 C 19,4 C 16,7 C 59 % 0 lf 1019,4 hPa 0,0 l/m 0 min 0 min 7 W/m 10,5 km/h (2 Bft) 100,00 %
24.09.2016 19:40 21,1 C 19,4 C 16,1 C 59 % 0 lf 1019,4 hPa 0,0 l/m 0 min 0 min 7 W/m 10,5 km/h (2 Bft) 97,87 %
24.09.2016 19:42 21,0 C 19,4 C 16,1 C 60 % 0 lf 1019,4 hPa 0,0 l/m 0 min 0 min 0 W/m 10,5 km/h (2 Bft) 100,00 %
24.09.2016 19:44 20,9 C 19,4 C 16,1 C 60 % 0 lf 1019,4 hPa 0,0 l/m 0 min 0 min 5 W/m 6,3 km/h (2 Bft) 97,87 %
24.09.2016 19:46 20,9 C 19,4 C 16,1 C 60 % 0 lf 1019,3 hPa 0,0 l/m 0 min 0 min 5 W/m 10,5 km/h (2 Bft) 97,87 %
24.09.2016 19:48 20,8 C 19,4 C 16,1 C 60 % 0 lf 1019,3 hPa 0,0 l/m 0 min 0 min 5 W/m 14,6 km/h (3 Bft) 97,87 %
24.09.2016 19:50 20,7 C 19,4 C 16,1 C 60 % 0 lf 1019,4 hPa 0,0 l/m 0 min 0 min 5 W/m 10,5 km/h (2 Bft) 100,00 %
24.09.2016 19:52 20,6 C 19,4 C 16,1 C 61 % 0 lf 1019,4 hPa 0,0 l/m 0 min 0 min 5 W/m 8,4 km/h (2 Bft) 97,87 %
24.09.2016 19:54 20,6 C 18,9 C 15,6 C 61 % 0 lf 1019,4 hPa 0,0 l/m 0 min 0 min 5 W/m 8,4 km/h (2 Bft) 97,87 %
24.09.2016 19:56 20,5 C 18,9 C 15,6 C 61 % 0 lf 1019,4 hPa 0,0 l/m 0 min 0 min 5 W/m 8,4 km/h (2 Bft) 95,74 %
24.09.2016 19:58 20,4 C 18,9 C 15,6 C 61 % 0 lf 1019,4 hPa 0,0 l/m 0 min 0 min 5 W/m 8,4 km/h (2 Bft) 97,87 %
24.09.2016 20:00 20,3 C 18,9 C 15,6 C 62 % 0 lf 1019,4 hPa 0,0 l/m 0 min 0 min 5 W/m 8,4 km/h (2 Bft) 95,74 %
24.09.2016 20:02 20,3 C 18,9 C 15,6 C 62 % 0 lf 1019,3 hPa 0,0 l/m 0 min 0 min 5 W/m 8,4 km/h (2 Bft) 95,83 %
24.09.2016 20:04 20,2 C 18,9 C 15,0 C 62 % 0 lf 1019,4 hPa 0,0 l/m 0 min 0 min 5 W/m 10,5 km/h (2 Bft) 97,87 %
24.09.2016 20:06 20,1 C 18,9 C 15,0 C 62 % 0 lf 1019,4 hPa 0,0 l/m 0 min 0 min 5 W/m 8,4 km/h (2 Bft) 97,92 %
24.09.2016 20:08 20,0 C 18,9 C 15,0 C 62 % 0 lf 1019,4 hPa 0,0 l/m 0 min 0 min 5 W/m 10,5 km/h (2 Bft) 97,87 %
24.09.2016 20:10 19,9 C 18,9 C 15,0 C 62 % 0 lf 1019,3 hPa 0,0 l/m 0 min 0 min 5 W/m 8,4 km/h (2 Bft) 95,74 %
24.09.2016 20:12 19,9 C 18,9 C 15,0 C 63 % 0 lf 1019,4 hPa 0,0 l/m 0 min 0 min 5 W/m 6,3 km/h (2 Bft) 97,87 %
24.09.2016 20:14 19,8 C 18,9 C 15,0 C 63 % 0 lf 1019,4 hPa 0,0 l/m 0 min 0 min 5 W/m 6,3 km/h (2 Bft) 100,00 %
24.09.2016 20:16 19,8 C 18,9 C 15,0 C 63 % 0 lf 1019,5 hPa 0,0 l/m 0 min 0 min 5 W/m 6,3 km/h (2 Bft) 95,74 %
24.09.2016 20:18 19,7 C 18,9 C 14,4 C 63 % 0 lf 1019,4 hPa 0,0 l/m 0 min 0 min 5 W/m 8,4 km/h (2 Bft) 97,87 %
24.09.2016 20:20 19,7 C 18,9 C 14,4 C 63 % 0 lf 1019,5 hPa 0,0 l/m 0 min 0 min 5 W/m 8,4 km/h (2 Bft) 93,62 %
24.09.2016 20:22 19,6 C 18,3 C 15,0 C 63 % 0 lf 1019,5 hPa 0,0 l/m 0 min 0 min 5 W/m 10,5 km/h (2 Bft) 100,00 %
24.09.2016 20:24 19,5 C 18,9 C 15,0 C 63 % 0 lf 1019,4 hPa 0,0 l/m 0 min 0 min 5 W/m 10,5 km/h (2 Bft) 100,00 %
24.09.2016 20:26 19,5 C 18,3 C 15,0 C 64 % 0 lf 1019,4 hPa 0,0 l/m 0 min 0 min 5 W/m 10,5 km/h (2 Bft) 95,74 %
24.09.2016 20:28 19,4 C 18,3 C 14,4 C 64 % 0 lf 1019,4 hPa 0,0 l/m 0 min 0 min 5 W/m 10,5 km/h (2 Bft) 93,62 %
24.09.2016 20:30 19,4 C 18,3 C 15,0 C 64 % 0 lf 1019,4 hPa 0,0 l/m 0 min 0 min 5 W/m 10,5 km/h (2 Bft) 95,74 %
24.09.2016 20:32 19,3 C 18,3 C 15,0 C 64 % 0 lf 1019,3 hPa 0,0 l/m 0 min 0 min 5 W/m 10,5 km/h (2 Bft) 97,87 %
24.09.2016 20:34 19,2 C 18,3 C 15,0 C 64 % 0 lf 1019,4 hPa 0,0 l/m 0 min 0 min 5 W/m 10,5 km/h (2 Bft) 97,87 %
24.09.2016 20:36 19,2 C 17,8 C 14,4 C 64 % 0 lf 1019,4 hPa 0,0 l/m 0 min 0 min 5 W/m 8,4 km/h (2 Bft) 91,49 %
24.09.2016 20:38 19,1 C 17,8 C 14,4 C 65 % 0 lf 1019,4 hPa 0,0 l/m 0 min 0 min 5 W/m 8,4 km/h (2 Bft) 97,83 %
24.09.2016 20:40 19,1 C 17,8 C 14,4 C 65 % 0 lf 1019,3 hPa 0,0 l/m 0 min 0 min 5 W/m 6,3 km/h (2 Bft) 97,87 %
24.09.2016 20:42 19,0 C 17,8 C 14,4 C 65 % 0 lf 1019,4 hPa 0,0 l/m 0 min 0 min 5 W/m 8,4 km/h (2 Bft) 95,74 %
24.09.2016 20:44 18,9 C 17,8 C 14,4 C 65 % 0 lf 1019,5 hPa 0,0 l/m 0 min 0 min 5 W/m 6,3 km/h (2 Bft) 95,74 %
24.09.2016 20:46 18,9 C 17,2 C 13,9 C 65 % 0 lf 1019,5 hPa 0,0 l/m 0 min 0 min 5 W/m 4,2 km/h (1 Bft) 97,87 %
24.09.2016 20:48 18,8 C 17,2 C 13,9 C 65 % 0 lf 1019,4 hPa 0,0 l/m 0 min 0 min 5 W/m 4,2 km/h (1 Bft) 97,83 %
24.09.2016 20:50 18,8 C 17,2 C 13,9 C 66 % 0 lf 1019,5 hPa 0,0 l/m 0 min 0 min 5 W/m 6,3 km/h (2 Bft) 97,87 %
24.09.2016 20:52 18,7 C 16,7 C 13,9 C 66 % 0 lf 1019,5 hPa 0,0 l/m 0 min 0 min 5 W/m 6,3 km/h (2 Bft) 97,87 %
24.09.2016 20:54 18,7 C 16,7 C 13,3 C 66 % 0 lf 1019,4 hPa 0,0 l/m 0 min 0 min 5 W/m 6,3 km/h (2 Bft) 93,62 %
24.09.2016 20:56 18,7 C 16,7 C 13,3 C 66 % 0 lf 1019,5 hPa 0,0 l/m 0 min 0 min 5 W/m 6,3 km/h (2 Bft) 97,87 %
24.09.2016 20:58 18,6 C 16,7 C 13,3 C 66 % 0 lf 1019,4 hPa 0,0 l/m 0 min 0 min 5 W/m 4,2 km/h (1 Bft) 97,87 %
24.09.2016 21:00 18,5 C 16,7 C 13,3 C 66 % 0 lf 1019,4 hPa 0,0 l/m 0 min 0 min 5 W/m 6,3 km/h (2 Bft) 95,65 %
24.09.2016 21:02 18,4 C 16,7 C 12,8 C 66 % 0 lf 1019,5 hPa 0,0 l/m 0 min 0 min 0 W/m 4,2 km/h (1 Bft) 97,87 %
24.09.2016 21:04 18,4 C 16,7 C 12,8 C 67 % 0 lf 1019,4 hPa 0,0 l/m 0 min 0 min 0 W/m 6,3 km/h (2 Bft) 95,74 %
24.09.2016 21:06 18,3 C 16,7 C 12,8 C 67 % 0 lf 1019,5 hPa 0,0 l/m 0 min 0 min 0 W/m 6,3 km/h (2 Bft) 91,49 %
24.09.2016 21:08 18,3 C 16,7 C 12,8 C 67 % 0 lf 1019,4 hPa 0,0 l/m 0 min 0 min 0 W/m 8,4 km/h (2 Bft) 95,74 %
24.09.2016 21:10 18,2 C 16,7 C 12,8 C 67 % 0 lf 1019,4 hPa 0,0 l/m 0 min 0 min 0 W/m 8,4 km/h (2 Bft) 93,62 %
24.09.2016 21:12 18,1 C 16,7 C 12,8 C 67 % 0 lf 1019,4 hPa 0,0 l/m 0 min 0 min 0 W/m 6,3 km/h (2 Bft) 95,65 %
24.09.2016 21:14 18,1 C 16,7 C 12,8 C 68 % 0 lf 1019,4 hPa 0,0 l/m 0 min 0 min 0 W/m 6,3 km/h (2 Bft) 91,49 %
24.09.2016 21:16 18,0 C 16,7 C 12,8 C 68 % 0 lf 1019,4 hPa 0,0 l/m 0 min 0 min 0 W/m 6,3 km/h (2 Bft) 94,34 %
24.09.2016 21:18 17,9 C 16,7 C 12,8 C 68 % 0 lf 1019,4 hPa 0,0 l/m 0 min 0 min 0 W/m 8,4 km/h (2 Bft) 93,62 %
24.09.2016 21:20 17,8 C 16,7 C 12,8 C 68 % 0 lf 1019,4 hPa 0,0 l/m 0 min 0 min 0 W/m 8,4 km/h (2 Bft) 95,74 %
24.09.2016 21:22 17,8 C 16,7 C 12,8 C 69 % 0 lf 1019,4 hPa 0,0 l/m 0 min 0 min 0 W/m 6,3 km/h (2 Bft) 93,62 %
24.09.2016 21:24 17,7 C 16,7 C 12,8 C 69 % 0 lf 1019,4 hPa 0,0 l/m 0 min 0 min 0 W/m 8,4 km/h (2 Bft) 97,83 %
24.09.2016 21:26 17,7 C 16,1 C 12,8 C 69 % 0 lf 1019,4 hPa 0,0 l/m 0 min 0 min 0 W/m 10,5 km/h (2 Bft) 95,74 %
24.09.2016 21:28 17,6 C 16,7 C 12,8 C 69 % 0 lf 1019,3 hPa 0,0 l/m 0 min 0 min 0 W/m 8,4 km/h (2 Bft) 97,87 %
24.09.2016 21:30 17,5 C 16,7 C 12,8 C 69 % 0 lf 1019,3 hPa 0,0 l/m 0 min 0 min 0 W/m 8,4 km/h (2 Bft) 97,87 %
24.09.2016 21:32 17,4 C 16,7 C 12,8 C 70 % 0 lf 1019,4 hPa 0,0 l/m 0 min 0 min 0 W/m 8,4 km/h (2 Bft) 97,87 %
24.09.2016 21:34 17,4 C 16,7 C 12,8 C 70 % 0 lf 1019,3 hPa 0,0 l/m 0 min 0 min 0 W/m 8,4 km/h (2 Bft) 97,83 %
24.09.2016 21:36 17,3 C 16,7 C 13,3 C 70 % 0 lf 1019,3 hPa 0,0 l/m 0 min 0 min 0 W/m 12,6 km/h (3 Bft) 95,74 %
24.09.2016 21:38 17,3 C 16,7 C 13,3 C 70 % 0 lf 1019,3 hPa 0,0 l/m 0 min 0 min 0 W/m 10,5 km/h (2 Bft) 95,74 %
24.09.2016 21:40 17,2 C 16,7 C 13,3 C 70 % 0 lf 1019,3 hPa 0,0 l/m 0 min 0 min 5 W/m 10,5 km/h (2 Bft) 95,74 %
24.09.2016 21:42 17,2 C 16,7 C 13,3 C 70 % 0 lf 1019,3 hPa 0,0 l/m 0 min 0 min 5 W/m 10,5 km/h (2 Bft) 93,62 %
24.09.2016 21:44 17,1 C 16,7 C 13,9 C 71 % 0 lf 1019,4 hPa 0,0 l/m 0 min 0 min 0 W/m 12,6 km/h (3 Bft) 86,96 %
24.09.2016 21:46 17,1 C 16,7 C 13,9 C 71 % 0 lf 1019,3 hPa 0,0 l/m 0 min 0 min 0 W/m 10,5 km/h (2 Bft) 95,74 %
24.09.2016 21:48 17,1 C 16,7 C 13,9 C 71 % 0 lf 1019,4 hPa 0,0 l/m 0 min 0 min 0 W/m 14,6 km/h (3 Bft) 93,62 %
24.09.2016 21:50 17,0 C 16,7 C 13,9 C 71 % 0 lf 1019,3 hPa 0,0 l/m 0 min 0 min 0 W/m 8,4 km/h (2 Bft) 93,62 %
24.09.2016 21:52 17,0 C 16,7 C 13,9 C 71 % 0 lf 1019,4 hPa 0,0 l/m 0 min 0 min 0 W/m 12,6 km/h (3 Bft) 93,62 %
24.09.2016 21:54 16,9 C 16,7 C 13,9 C 71 % 0 lf 1019,4 hPa 0,0 l/m 0 min 0 min 0 W/m 10,5 km/h (2 Bft) 93,62 %
24.09.2016 21:56 16,9 C 16,7 C 13,9 C 71 % 0 lf 1019,4 hPa 0,0 l/m 0 min 0 min 0 W/m 8,4 km/h (2 Bft) 93,62 %
24.09.2016 21:58 16,9 C 16,7 C 13,9 C 71 % 0 lf 1019,4 hPa 0,0 l/m 0 min 0 min 0 W/m 12,6 km/h (3 Bft) 95,65 %
24.09.2016 22:00 16,9 C 16,7 C 14,4 C 71 % 0 lf 1019,4 hPa 0,0 l/m 0 min 0 min 0 W/m 10,5 km/h (2 Bft) 95,74 %
24.09.2016 22:02 16,9 C 16,7 C 14,4 C 71 % 0 lf 1019,4 hPa 0,0 l/m 0 min 0 min 0 W/m 10,5 km/h (2 Bft) 93,75 %
24.09.2016 22:04 16,9 C 16,7 C 14,4 C 70 % 0 lf 1019,4 hPa 0,0 l/m 0 min 0 min 0 W/m 10,5 km/h (2 Bft) 95,74 %
24.09.2016 22:06 16,9 C 16,7 C 14,4 C 70 % 0 lf 1019,4 hPa 0,0 l/m 0 min 0 min 0 W/m 8,4 km/h (2 Bft) 91,49 %
24.09.2016 22:08 16,9 C 16,7 C 14,4 C 70 % 0 lf 1019,4 hPa 0,0 l/m 0 min 0 min 0 W/m 8,4 km/h (2 Bft) 95,65 %
24.09.2016 22:10 16,9 C 16,7 C 13,9 C 70 % 0 lf 1019,4 hPa 0,0 l/m 0 min 0 min 0 W/m 8,4 km/h (2 Bft) 93,62 %
24.09.2016 22:12 16,9 C 16,7 C 13,9 C 70 % 0 lf 1019,4 hPa 0,0 l/m 0 min 0 min 0 W/m 10,5 km/h (2 Bft) 93,62 %
24.09.2016 22:14 16,9 C 16,7 C 13,9 C 70 % 0 lf 1019,3 hPa 0,0 l/m 0 min 0 min 0 W/m 10,5 km/h (2 Bft) 95,74 %
24.09.2016 22:16 16,9 C 16,7 C 13,9 C 70 % 0 lf 1019,4 hPa 0,0 l/m 0 min 0 min 0 W/m 10,5 km/h (2 Bft) 95,74 %
24.09.2016 22:18 16,9 C 16,7 C 13,9 C 70 % 0 lf 1019,4 hPa 0,0 l/m 0 min 0 min 0 W/m 8,4 km/h (2 Bft) 87,23 %
24.09.2016 22:20 16,8 C 16,7 C 13,9 C 70 % 0 lf 1019,4 hPa 0,0 l/m 0 min 0 min 0 W/m 12,6 km/h (3 Bft) 95,74 %
24.09.2016 22:22 16,8 C 16,7 C 13,9 C 70 % 0 lf 1019,3 hPa 0,0 l/m 0 min 0 min 0 W/m 10,5 km/h (2 Bft) 95,65 %
24.09.2016 22:24 16,8 C 16,7 C 13,9 C 70 % 0 lf 1019,3 hPa 0,0 l/m 0 min 0 min 0 W/m 14,6 km/h (3 Bft) 95,74 %
24.09.2016 22:26 16,8 C 16,7 C 13,9 C 70 % 0 lf 1019,3 hPa 0,0 l/m 0 min 0 min 0 W/m 10,5 km/h (2 Bft) 97,87 %
24.09.2016 22:28 16,8 C 16,7 C 13,3 C 70 % 0 lf 1019,3 hPa 0,0 l/m 0 min 0 min 0 W/m 10,5 km/h (2 Bft) 97,87 %
24.09.2016 22:30 16,8 C 16,1 C 13,9 C 70 % 0 lf 1019,3 hPa 0,0 l/m 0 min 0 min 0 W/m 12,6 km/h (3 Bft) 97,87 %
24.09.2016 22:32 16,7 C 16,1 C 13,3 C 70 % 0 lf 1019,3 hPa 0,0 l/m 0 min 0 min 0 W/m 12,6 km/h (3 Bft) 93,48 %
24.09.2016 22:34 16,7 C 16,1 C 13,3 C 70 % 0 lf 1019,3 hPa 0,0 l/m 0 min 0 min 0 W/m 10,5 km/h (2 Bft) 97,87 %
24.09.2016 22:36 16,7 C 16,1 C 13,3 C 70 % 0 lf 1019,3 hPa 0,0 l/m 0 min 0 min 0 W/m 8,4 km/h (2 Bft) 92,11 %
24.09.2016 22:38 16,7 C 16,1 C 13,3 C 70 % 0 lf 1019,3 hPa 0,0 l/m 0 min 0 min 0 W/m 12,6 km/h (3 Bft) 100,00 %
24.09.2016 22:40 16,7 C 16,1 C 13,3 C 70 % 0 lf 1019,3 hPa 0,0 l/m 0 min 0 min 0 W/m 8,4 km/h (2 Bft) 97,87 %
24.09.2016 22:42 16,6 C 16,1 C 13,3 C 70 % 0 lf 1019,3 hPa 0,0 l/m 0 min 0 min 0 W/m 8,4 km/h (2 Bft) 100,00 %
24.09.2016 22:44 16,6 C 16,1 C 13,3 C 70 % 0 lf 1019,3 hPa 0,0 l/m 0 min 0 min 0 W/m 10,5 km/h (2 Bft) 97,87 %
24.09.2016 22:46 16,6 C 16,1 C 13,3 C 70 % 0 lf 1019,3 hPa 0,0 l/m 0 min 0 min 0 W/m 6,3 km/h (2 Bft) 100,00 %
24.09.2016 22:48 16,5 C 16,1 C 13,3 C 70 % 0 lf 1019,3 hPa 0,0 l/m 0 min 0 min 0 W/m 6,3 km/h (2 Bft) 100,00 %
24.09.2016 22:50 16,5 C 16,1 C 13,3 C 70 % 0 lf 1019,3 hPa 0,0 l/m 0 min 0 min 0 W/m 8,4 km/h (2 Bft) 100,00 %
24.09.2016 22:52 16,4 C 16,1 C 13,3 C 70 % 0 lf 1019,3 hPa 0,0 l/m 0 min 0 min 0 W/m 10,5 km/h (2 Bft) 97,87 %
24.09.2016 22:54 16,4 C 16,1 C 13,3 C 70 % 0 lf 1019,3 hPa 0,0 l/m 0 min 0 min 0 W/m 6,3 km/h (2 Bft) 100,00 %
24.09.2016 22:56 16,4 C 16,1 C 12,8 C 70 % 0 lf 1019,3 hPa 0,0 l/m 0 min 0 min 0 W/m 8,4 km/h (2 Bft) 97,87 %
24.09.2016 22:58 16,4 C 15,6 C 13,3 C 70 % 0 lf 1019,3 hPa 0,0 l/m 0 min 0 min 0 W/m 8,4 km/h (2 Bft) 97,83 %
24.09.2016 23:00 16,3 C 16,1 C 13,3 C 71 % 0 lf 1019,2 hPa 0,0 l/m 0 min 0 min 0 W/m 8,4 km/h (2 Bft) 100,00 %
24.09.2016 23:02 16,3 C 15,6 C 12,8 C 70 % 0 lf 1019,2 hPa 0,0 l/m 0 min 0 min 0 W/m 12,6 km/h (3 Bft) 100,00 %
24.09.2016 23:04 16,3 C 15,6 C 12,8 C 70 % 0 lf 1019,2 hPa 0,0 l/m 0 min 0 min 0 W/m 10,5 km/h (2 Bft) 100,00 %
24.09.2016 23:06 16,2 C 15,6 C 12,8 C 70 % 0 lf 1019,2 hPa 0,0 l/m 0 min 0 min 0 W/m 10,5 km/h (2 Bft) 95,92 %
24.09.2016 23:08 16,2 C 15,6 C 12,8 C 70 % 0 lf 1019,2 hPa 0,0 l/m 0 min 0 min 0 W/m 10,5 km/h (2 Bft) 100,00 %
24.09.2016 23:10 16,2 C 15,6 C 12,8 C 70 % 0 lf 1019,2 hPa 0,0 l/m 0 min 0 min 0 W/m 8,4 km/h (2 Bft) 97,87 %
24.09.2016 23:12 16,2 C 15,6 C 12,8 C 71 % 0 lf 1019,1 hPa 0,0 l/m 0 min 0 min 0 W/m 10,5 km/h (2 Bft) 100,00 %
24.09.2016 23:14 16,1 C 15,6 C 12,8 C 71 % 0 lf 1019,1 hPa 0,0 l/m 0 min 0 min 0 W/m 10,5 km/h (2 Bft) 100,00 %
24.09.2016 23:16 16,1 C 15,6 C 12,8 C 71 % 0 lf 1019,1 hPa 0,0 l/m 0 min 0 min 0 W/m 8,4 km/h (2 Bft) 100,00 %
24.09.2016 23:18 16,1 C 15,6 C 12,8 C 71 % 0 lf 1019,2 hPa 0,0 l/m 0 min 0 min 0 W/m 10,5 km/h (2 Bft) 100,00 %
24.09.2016 23:20 16,1 C 15,6 C 12,8 C 71 % 0 lf 1019,1 hPa 0,0 l/m 0 min 0 min 0 W/m 10,5 km/h (2 Bft) 100,00 %
24.09.2016 23:22 16,0 C 15,6 C 12,8 C 71 % 0 lf 1019,2 hPa 0,0 l/m 0 min 0 min 0 W/m 10,5 km/h (2 Bft) 100,00 %
24.09.2016 23:24 16,0 C 15,6 C 12,8 C 71 % 0 lf 1019,2 hPa 0,0 l/m 0 min 0 min 0 W/m 10,5 km/h (2 Bft) 97,87 %
24.09.2016 23:26 16,0 C 15,6 C 12,8 C 71 % 0 lf 1019,1 hPa 0,0 l/m 0 min 0 min 5 W/m 10,5 km/h (2 Bft) 93,62 %
24.09.2016 23:28 15,9 C 15,6 C 12,8 C 71 % 0 lf 1019,1 hPa 0,0 l/m 0 min 0 min 5 W/m 8,4 km/h (2 Bft) 97,87 %
24.09.2016 23:30 15,9 C 15,6 C 12,8 C 71 % 0 lf 1019,1 hPa 0,0 l/m 0 min 0 min 0 W/m 10,5 km/h (2 Bft) 100,00 %
24.09.2016 23:32 15,9 C 15,6 C 12,8 C 71 % 0 lf 1019,2 hPa 0,0 l/m 0 min 0 min 0 W/m 6,3 km/h (2 Bft) 100,00 %
24.09.2016 23:34 15,9 C 15,6 C 12,8 C 71 % 0 lf 1019,2 hPa 0,0 l/m 0 min 0 min 5 W/m 10,5 km/h (2 Bft) 97,87 %
24.09.2016 23:36 15,8 C 15,6 C 12,8 C 71 % 0 lf 1019,2 hPa 0,0 l/m 0 min 0 min 5 W/m 12,6 km/h (3 Bft) 100,00 %
24.09.2016 23:38 15,8 C 15,6 C 12,8 C 71 % 0 lf 1019,1 hPa 0,0 l/m 0 min 0 min 0 W/m 12,6 km/h (3 Bft) 97,87 %
24.09.2016 23:40 15,8 C 15,6 C 12,8 C 71 % 0 lf 1019,2 hPa 0,0 l/m 0 min 0 min 0 W/m 10,5 km/h (2 Bft) 100,00 %
24.09.2016 23:42 15,8 C 15,0 C 12,8 C 71 % 0 lf 1019,1 hPa 0,0 l/m 0 min 0 min 0 W/m 12,6 km/h (3 Bft) 100,00 %
24.09.2016 23:44 15,8 C 15,0 C 12,8 C 71 % 0 lf 1019,2 hPa 0,0 l/m 0 min 0 min 0 W/m 10,5 km/h (2 Bft) 97,87 %
24.09.2016 23:46 15,7 C 15,0 C 12,8 C 71 % 0 lf 1019,1 hPa 0,0 l/m 0 min 0 min 0 W/m 8,4 km/h (2 Bft) 100,00 %
24.09.2016 23:48 15,7 C 15,0 C 12,8 C 71 % 0 lf 1019,1 hPa 0,0 l/m 0 min 0 min 0 W/m 8,4 km/h (2 Bft) 97,87 %
24.09.2016 23:50 15,7 C 15,0 C 12,8 C 71 % 0 lf 1019,1 hPa 0,0 l/m 0 min 0 min 0 W/m 8,4 km/h (2 Bft) 100,00 %
24.09.2016 23:52 15,6 C 15,0 C 12,2 C 71 % 0 lf 1019,1 hPa 0,0 l/m 0 min 0 min 0 W/m 6,3 km/h (2 Bft) 95,65 %
24.09.2016 23:54 15,6 C 15,0 C 12,2 C 72 % 0 lf 1019,0 hPa 0,0 l/m 0 min 0 min 0 W/m 10,5 km/h (2 Bft) 97,87 %
24.09.2016 23:56 15,6 C 15,0 C 12,2 C 72 % 0 lf 1019,0 hPa 0,0 l/m 0 min 0 min 0 W/m 10,5 km/h (2 Bft) 93,62 %
24.09.2016 23:58 15,6 C 15,0 C 12,2 C 72 % 0 lf 1018,9 hPa 0,0 l/m 0 min 0 min 0 W/m 8,4 km/h (2 Bft) 93,62 %
_ Min-Zeit 07:10 02:02 02:04 16:10 09:28 23:58 - - - - 00:00 21:44
Minimum _ 10,1 C 8,9 C 7,8 C 49 % 0 lf 1018,9 hPa - - - - 0,0 km/h (0 Bft) 86,96 %
_ Max-Zeit 15:20 15:06 11:48 08:56 00:40 00:00 00:00 07:36 00:00 13:18 17:28 00:26
Maximum _ 25,4 C 33,9 C 25,6 C 98 % 15 lf 1025,2 hPa 0,0 l/m 2 min 0 min 1311 W/m 25,1 km/h
O-SO (4 Bft)
100,00 %
Durchschnitt _ 16,8 C 18,5 C 15,1 C 77 % 6 lf 1022,4 hPa #0,0 l/m #10:28 h #0 min. 228 W/m 9,3 km/h (2 Bft) 96,31 %
© 2016 W. Hausmann